| time (UTC) | temp C | wind direction | speed KPH | gust KPH | rain 1hr cm | rain 24hr cm | rain mn cm | humidity % | barometer mb |
| 20260510020750 | 24 | 127 | 0.0 | 0.0 | 0.00 | 0.00 | 0.00 | 73 | 1003.9 |
| 20260510020649 | 24 | 127 | 0.0 | 0.0 | 0.00 | 0.00 | 0.00 | 73 | 1003.8 |
| 20260510020549 | 24 | 127 | 0.0 | 0.0 | 0.00 | 0.00 | 0.00 | 73 | 1003.8 |
| 20260510020450 | 24 | 127 | 0.0 | 0.0 | 0.00 | 0.00 | 0.00 | 72 | 1003.8 |
| 20260510020350 | 24 | 127 | 0.0 | 0.0 | 0.00 | 0.00 | 0.00 | 72 | 1003.7 |
| 20260510020251 | 24 | 127 | 0.0 | 0.0 | 0.00 | 0.00 | 0.00 | 72 | 1003.7 |
| 20260510020148 | 24 | 127 | 0.0 | 0.0 | 0.00 | 0.00 | 0.00 | 72 | 1003.6 |
| 20260510020051 | 24 | 127 | 0.0 | 0.0 | 0.00 | 0.00 | 0.00 | 72 | 1003.5 |
| 20260510015950 | 24 | 127 | 0.0 | 0.0 | 0.00 | 0.00 | 0.00 | 72 | 1003.5 |
| 20260510015848 | 24 | 127 | 0.0 | 0.0 | 0.00 | 0.00 | 0.00 | 72 | 1003.4 |
| 20260510015748 | 24 | 127 | 0.0 | 0.0 | 0.00 | 0.00 | 0.00 | 71 | 1003.4 |
| 20260510015649 | 24 | 127 | 0.0 | 0.0 | 0.00 | 0.00 | 0.00 | 71 | 1003.4 |
| 20260510015548 | 24 | 127 | 0.0 | 0.0 | 0.00 | 0.00 | 0.00 | 71 | 1003.4 |
| 20260510015448 | 24 | 127 | 0.0 | 0.0 | 0.00 | 0.00 | 0.00 | 71 | 1003.4 |
| 20260510015350 | 24 | 127 | 0.0 | 0.0 | 0.00 | 0.00 | 0.00 | 71 | 1003.4 |
| 20260510015249 | 24 | 127 | 0.0 | 0.0 | 0.00 | 0.00 | 0.00 | 70 | 1003.3 |
| 20260510015151 | 24 | 127 | 0.0 | 0.0 | 0.00 | 0.00 | 0.00 | 70 | 1003.3 |
| 20260510015048 | 24 | 127 | 0.0 | 0.0 | 0.00 | 0.00 | 0.00 | 70 | 1003.3 |
| 20260510014948 | 24 | 127 | 0.0 | 0.0 | 0.00 | 0.00 | 0.00 | 70 | 1003.3 |
| 20260510014850 | 25 | 127 | 0.0 | 0.0 | 0.00 | 0.00 | 0.00 | 70 | 1003.2 |
| 20260510014748 | 25 | 127 | 0.0 | 0.0 | 0.00 | 0.00 | 0.00 | 70 | 1003.2 |
| 20260510014649 | 25 | 127 | 0.0 | 0.0 | 0.00 | 0.00 | 0.00 | 70 | 1003.1 |
| 20260510014549 | 25 | 127 | 0.0 | 0.0 | 0.00 | 0.00 | 0.00 | 69 | 1003.2 |
| 20260510014448 | 25 | 127 | 0.0 | 0.0 | 0.00 | 0.00 | 0.00 | 69 | 1003.1 |
| 20260510014350 | 25 | 127 | 0.0 | 0.0 | 0.00 | 0.00 | 0.00 | 69 | 1003.1 |
| 20260510014248 | 25 | 127 | 0.0 | 0.0 | 0.00 | 0.00 | 0.00 | 69 | 1003.0 |
| 20260510014149 | 25 | 127 | 0.0 | 0.0 | 0.00 | 0.00 | 0.00 | 69 | 1003.0 |
| 20260510014050 | 25 | 127 | 0.0 | 0.0 | 0.00 | 0.00 | 0.00 | 69 | 1003.1 |
| 20260510013951 | 25 | 127 | 0.0 | 0.0 | 0.00 | 0.00 | 0.00 | 69 | 1003.1 |
| 20260510013849 | 25 | 127 | 0.0 | 0.0 | 0.00 | 0.00 | 0.00 | 69 | 1003.1 |
| 20260510013749 | 25 | 127 | 0.0 | 0.0 | 0.00 | 0.00 | 0.00 | 69 | 1003.1 |
| 20260510013648 | 25 | 127 | 0.0 | 0.0 | 0.00 | 0.00 | 0.00 | 69 | 1003.1 |
| 20260510013548 | 25 | 127 | 0.0 | 0.0 | 0.00 | 0.00 | 0.00 | 69 | 1003.2 |
| 20260510013449 | 25 | 127 | 0.0 | 0.0 | 0.00 | 0.00 | 0.00 | 69 | 1003.1 |
| 20260510013348 | 25 | 127 | 0.0 | 0.0 | 0.00 | 0.00 | 0.00 | 69 | 1003.2 |
| 20260510013248 | 25 | 127 | 0.0 | 0.0 | 0.00 | 0.00 | 0.00 | 69 | 1003.2 |
| 20260510013148 | 25 | 127 | 0.0 | 0.0 | 0.00 | 0.00 | 0.00 | 68 | 1003.2 |
| 20260510013050 | 25 | 127 | 0.0 | 0.0 | 0.00 | 0.00 | 0.00 | 68 | 1003.2 |
| 20260510012949 | 25 | 127 | 0.0 | 0.0 | 0.00 | 0.00 | 0.00 | 68 | 1003.2 |
| 20260510012851 | 25 | 127 | 0.0 | 0.0 | 0.00 | 0.00 | 0.00 | 68 | 1003.2 |
| 20260510012749 | 25 | 127 | 0.0 | 1.6 | 0.00 | 0.00 | 0.00 | 68 | 1003.1 |
| 20260510012649 | 25 | 127 | 0.0 | 1.6 | 0.00 | 0.00 | 0.00 | 68 | 1003.2 |
| 20260510012550 | 25 | 127 | 0.0 | 4.8 | 0.00 | 0.00 | 0.00 | 68 | 1003.1 |
| 20260510012449 | 25 | 127 | 0.0 | 4.8 | 0.00 | 0.00 | 0.00 | 68 | 1003.1 |
| 20260510012348 | 25 | 127 | 0.0 | 4.8 | 0.00 | 0.00 | 0.00 | 67 | 1003.2 |
| 20260510012248 | 25 | 127 | 0.0 | 4.8 | 0.00 | 0.00 | 0.00 | 67 | 1003.2 |
| 20260510012147 | 25 | 127 | 0.0 | 4.8 | 0.00 | 0.00 | 0.00 | 67 | 1003.3 |
| 20260510012048 | 25 | 127 | 0.0 | 4.8 | 0.00 | 0.00 | 0.00 | 67 | 1003.3 |
| 20260510011947 | 25 | 127 | 0.0 | 4.8 | 0.00 | 0.00 | 0.00 | 67 | 1003.3 |
| 20260510011848 | 25 | 127 | 0.0 | 4.8 | 0.00 | 0.00 | 0.00 | 67 | 1003.3 |
| 20260510011747 | 25 | 127 | 1.6 | 4.8 | 0.00 | 0.00 | 0.00 | 67 | 1003.2 |
| 20260510011648 | 25 | 127 | 3.2 | 4.8 | 0.00 | 0.00 | 0.00 | 67 | 1003.2 |
| 20260510011549 | 25 | 127 | 3.2 | 8.0 | 0.00 | 0.00 | 0.00 | 67 | 1003.1 |
| 20260510011448 | 25 | 103 | 3.2 | 8.0 | 0.00 | 0.00 | 0.00 | 67 | 1003.1 |
| 20260510011349 | 25 | 103 | 3.2 | 8.0 | 0.00 | 0.00 | 0.00 | 67 | 1003.1 |
| 20260510011249 | 25 | 103 | 3.2 | 8.0 | 0.00 | 0.00 | 0.00 | 67 | 1003.2 |
| 20260510011148 | 25 | 103 | 3.2 | 8.0 | 0.00 | 0.00 | 0.00 | 67 | 1003.2 |
| 20260510011048 | 25 | 103 | 3.2 | 8.0 | 0.00 | 0.00 | 0.00 | 67 | 1003.2 |
| 20260510010949 | 25 | 103 | 4.8 | 8.0 | 0.00 | 0.00 | 0.00 | 67 | 1003.1 |
| 20260510010847 | 25 | 102 | 4.8 | 8.0 | 0.00 | 0.00 | 0.00 | 67 | 1003.2 |
| 20260510010749 | 25 | 102 | 4.8 | 8.0 | 0.00 | 0.00 | 0.00 | 67 | 1003.1 |
| 20260510010647 | 25 | 102 | 6.4 | 8.0 | 0.00 | 0.00 | 0.00 | 66 | 1003.1 |
| 20260510010547 | 25 | 104 | 4.8 | 8.0 | 0.00 | 0.00 | 0.00 | 66 | 1003.2 |
| 20260510010447 | 25 | 104 | 6.4 | 8.0 | 0.00 | 0.00 | 0.00 | 66 | 1003.1 |
| 20260510010349 | 25 | 106 | 6.4 | 8.0 | 0.00 | 0.00 | 0.00 | 66 | 1003.2 |
| 20260510010249 | 26 | 110 | 4.8 | 8.0 | 0.00 | 0.00 | 0.00 | 66 | 1003.1 |
| 20260510010150 | 26 | 142 | 3.2 | 6.4 | 0.00 | 0.00 | 0.00 | 66 | 1003.2 |
| 20260510010049 | 26 | 147 | 1.6 | 6.4 | 0.00 | 0.00 | 0.00 | 66 | 1003.2 |
| 20260510005947 | 26 | 161 | 0.0 | 0.0 | 0.00 | 0.00 | 0.00 | 66 | 1003.1 |
| 20260510005848 | 26 | 161 | 0.0 | 0.0 | 0.00 | 0.00 | 0.00 | 66 | 1003.1 |
| 20260510005747 | 26 | 162 | 0.0 | 0.0 | 0.00 | 0.00 | 0.00 | 66 | 1003.1 |
| 20260510005647 | 26 | 162 | 0.0 | 0.0 | 0.00 | 0.00 | 0.00 | 65 | 1002.9 |
| 20260510005548 | 26 | 164 | 0.0 | 0.0 | 0.00 | 0.00 | 0.00 | 65 | 1003.0 |
| 20260510005447 | 26 | 165 | 0.0 | 0.0 | 0.00 | 0.00 | 0.00 | 65 | 1002.9 |
| 20260510005347 | 26 | 166 | 0.0 | 1.6 | 0.00 | 0.00 | 0.00 | 64 | 1002.9 |
| 20260510005247 | 26 | 166 | 0.0 | 6.4 | 0.00 | 0.00 | 0.00 | 63 | 1002.8 |
| 20260510005148 | 26 | 166 | 0.0 | 6.4 | 0.00 | 0.00 | 0.00 | 63 | 1002.7 |
| 20260510005046 | 26 | 168 | 0.0 | 6.4 | 0.00 | 0.00 | 0.00 | 63 | 1002.6 |
| 20260510004946 | 26 | 171 | 0.0 | 6.4 | 0.00 | 0.00 | 0.00 | 63 | 1002.6 |
| 20260510004848 | 26 | 171 | 0.0 | 6.4 | 0.00 | 0.00 | 0.00 | 63 | 1002.6 |
| 20260510004747 | 26 | 171 | 0.0 | 6.4 | 0.00 | 0.00 | 0.00 | 63 | 1002.6 |
| 20260510004648 | 26 | 169 | 0.0 | 6.4 | 0.00 | 0.00 | 0.00 | 63 | 1002.6 |
| 20260510004547 | 26 | 171 | 0.0 | 6.4 | 0.00 | 0.00 | 0.00 | 63 | 1002.6 |
| 20260510004447 | 26 | 202 | 1.6 | 6.4 | 0.00 | 0.00 | 0.00 | 64 | 1002.7 |
| 20260510004347 | 26 | 202 | 3.2 | 8.0 | 0.00 | 0.00 | 0.00 | 64 | 1002.6 |
| 20260510004248 | 26 | 151 | 3.2 | 8.0 | 0.00 | 0.00 | 0.00 | 64 | 1002.7 |
| 20260510004147 | 26 | 166 | 4.8 | 8.0 | 0.00 | 0.00 | 0.00 | 64 | 1002.7 |
| 20260510004048 | 26 | 165 | 4.8 | 9.7 | 0.00 | 0.00 | 0.00 | 64 | 1002.8 |
| 20260510003947 | 26 | 161 | 4.8 | 9.7 | 0.00 | 0.00 | 0.00 | 64 | 1002.8 |
| 20260510003847 | 26 | 142 | 3.2 | 9.7 | 0.00 | 0.00 | 0.00 | 64 | 1002.8 |
| 20260510003748 | 26 | 176 | 4.8 | 9.7 | 0.00 | 0.00 | 0.00 | 64 | 1002.9 |
| 20260510003646 | 26 | 145 | 4.8 | 9.7 | 0.00 | 0.00 | 0.00 | 64 | 1002.9 |
| 20260510003547 | 26 | 135 | 4.8 | 9.7 | 0.00 | 0.00 | 0.00 | 65 | 1002.9 |
| 20260510003447 | 26 | 157 | 4.8 | 9.7 | 0.00 | 0.00 | 0.00 | 65 | 1002.9 |
| 20260510003347 | 25 | 166 | 4.8 | 9.7 | 0.00 | 0.00 | 0.00 | 65 | 1002.9 |
| 20260510003248 | 25 | 169 | 3.2 | 9.7 | 0.00 | 0.00 | 0.00 | 65 | 1002.8 |
| 20260510003147 | 25 | 142 | 4.8 | 9.7 | 0.00 | 0.00 | 0.00 | 65 | 1002.8 |
| 20260510003048 | 25 | 171 | 3.2 | 8.0 | 0.00 | 0.00 | 0.00 | 66 | 1002.8 |
| 20260510002947 | 25 | 169 | 1.6 | 8.0 | 0.00 | 0.00 | 0.00 | 67 | 1002.8 |
| 20260510002847 | 25 | 190 | 3.2 | 8.0 | 0.00 | 0.00 | 0.00 | 67 | 1002.8 |
| 20260510002747 | 25 | 158 | 4.8 | 8.0 | 0.00 | 0.00 | 0.00 | 68 | 1002.9 |
| 20260510002647 | 25 | 166 | 4.8 | 11.3 | 0.00 | 0.00 | 0.00 | 69 | 1002.9 |
| 20260510002548 | 25 | 147 | 3.2 | 11.3 | 0.00 | 0.00 | 0.00 | 69 | 1003.1 |
| 20260510002448 | 25 | 175 | 3.2 | 11.3 | 0.00 | 0.00 | 0.00 | 69 | 1003.0 |
| 20260510002349 | 25 | 178 | 3.2 | 11.3 | 0.00 | 0.00 | 0.00 | 69 | 1002.9 |
| 20260510002247 | 25 | 179 | 4.8 | 11.3 | 0.00 | 0.00 | 0.00 | 69 | 1003.1 |
| 20260510002148 | 25 | 172 | 4.8 | 11.3 | 0.00 | 0.00 | 0.00 | 70 | 1003.0 |
| 20260510002046 | 25 | 114 | 4.8 | 11.3 | 0.00 | 0.00 | 0.00 | 70 | 1003.0 |
| 20260510001948 | 24 | 102 | 6.4 | 11.3 | 0.00 | 0.00 | 0.00 | 70 | 1002.9 |
| 20260510001847 | 24 | 111 | 6.4 | 14.5 | 0.00 | 0.00 | 0.00 | 70 | 1002.9 |
| 20260510001746 | 24 | 148 | 6.4 | 14.5 | 0.00 | 0.00 | 0.00 | 70 | 1002.9 |
| 20260510001646 | 24 | 128 | 6.4 | 16.1 | 0.00 | 0.00 | 0.00 | 70 | 1002.8 |
| 20260510001546 | 24 | 161 | 6.4 | 17.7 | 0.00 | 0.00 | 0.00 | 70 | 1002.8 |
| 20260510001448 | 24 | 159 | 6.4 | 17.7 | 0.00 | 0.00 | 0.00 | 70 | 1002.9 |
| 20260510001346 | 24 | 219 | 6.4 | 22.5 | 0.00 | 0.00 | 0.00 | 70 | 1002.9 |
| 20260510001246 | 24 | 111 | 8.0 | 22.5 | 0.00 | 0.00 | 0.00 | 70 | 1002.9 |
| 20260510001148 | 24 | 149 | 8.0 | 22.5 | 0.00 | 0.00 | 0.00 | 69 | 1002.9 |
| 20260510001046 | 24 | 147 | 9.7 | 22.5 | 0.00 | 0.00 | 0.00 | 69 | 1002.8 |
| 20260510000946 | 25 | 202 | 9.7 | 22.5 | 0.00 | 0.00 | 0.00 | 69 | 1002.8 |
| 20260510000847 | 25 | 254 | 9.7 | 22.5 | 0.00 | 0.00 | 0.00 | 68 | 1002.8 |
| 20260510000746 | 25 | 111 | 9.7 | 24.1 | 0.00 | 0.00 | 0.00 | 68 | 1002.8 |
| 20260510000645 | 25 | 134 | 11.3 | 24.1 | 0.00 | 0.00 | 0.00 | 67 | 1002.9 |
| 20260510000547 | 25 | 134 | 12.9 | 24.1 | 0.00 | 0.00 | 0.00 | 67 | 1002.9 |
| 20260510000448 | 25 | 144 | 11.3 | 24.1 | 0.00 | 0.00 | 0.00 | 67 | 1003.0 |
| 20260510000348 | 25 | 147 | 11.3 | 24.1 | 0.00 | 0.00 | 0.00 | 65 | 1003.0 |
| 20260510000248 | 25 | 145 | 12.9 | 24.1 | 0.00 | 0.00 | 0.00 | 65 | 1003.1 |
| 20260510000146 | 26 | 161 | 11.3 | 24.1 | 0.00 | 0.00 | 0.00 | 64 | 1002.9 |
| 20260510000046 | 26 | 176 | 11.3 | 24.1 | 0.00 | 0.00 | 0.00 | 63 | 1002.9 |
| 20260509235948 | 26 | 159 | 12.9 | 24.1 | 0.00 | 0.00 | 0.00 | 63 | 1003.1 |
| 20260509235847 | 26 | 173 | 11.3 | 24.1 | 0.00 | 0.00 | 0.00 | 63 | 1003.1 |
| 20260509235746 | 27 | 158 | 9.7 | 25.7 | 0.00 | 0.00 | 0.00 | 63 | 1003.1 |
| 20260509235645 | 27 | 152 | 8.0 | 25.7 | 0.00 | 0.00 | 0.00 | 63 | 1003.2 |
| 20260509235546 | 27 | 148 | 9.7 | 25.7 | 0.00 | 0.00 | 0.00 | 63 | 1003.1 |
| 20260509235447 | 27 | 155 | 11.3 | 25.7 | 0.00 | 0.00 | 0.00 | 62 | 1003.0 |
| 20260509235346 | 27 | 147 | 12.9 | 25.7 | 0.00 | 0.00 | 0.00 | 63 | 1002.9 |
| 20260509235247 | 28 | 137 | 12.9 | 25.7 | 0.00 | 0.00 | 0.00 | 62 | 1002.9 |
| 20260509235146 | 28 | 131 | 11.3 | 25.7 | 0.00 | 0.00 | 0.00 | 62 | 1002.9 |
| 20260509235046 | 28 | 154 | 16.1 | 25.7 | 0.00 | 0.00 | 0.00 | 61 | 1002.8 |
| 20260509234947 | 29 | 147 | 17.7 | 25.7 | 0.00 | 0.00 | 0.00 | 62 | 1002.8 |
| 20260509234847 | 29 | 100 | 14.5 | 25.7 | 0.00 | 0.00 | 0.00 | 62 | 1002.8 |
| 20260509234747 | 30 | 161 | 12.9 | 19.3 | 0.00 | 0.00 | 0.00 | 63 | 1002.6 |
| 20260509234646 | 30 | 135 | 12.9 | 19.3 | 0.00 | 0.00 | 0.00 | 64 | 1002.6 |
| 20260509234546 | 30 | 189 | 9.7 | 19.3 | 0.00 | 0.00 | 0.00 | 65 | 1002.6 |
| 20260509234446 | 30 | 106 | 8.0 | 19.3 | 0.00 | 0.00 | 0.00 | 66 | 1002.5 |
| 20260509234346 | 30 | 166 | 8.0 | 19.3 | 0.00 | 0.00 | 0.00 | 66 | 1002.5 |
| 20260509234247 | 30 | 127 | 6.4 | 19.3 | 0.00 | 0.00 | 0.00 | 65 | 1002.4 |
| 20260509234146 | 31 | 157 | 4.8 | 19.3 | 0.00 | 0.00 | 0.00 | 66 | 1002.4 |
| 20260509234047 | 31 | 164 | 0.0 | 0.0 | 0.00 | 0.00 | 0.00 | 66 | 1002.4 |
| 20260509233945 | 31 | 193 | 0.0 | 0.0 | 0.00 | 0.00 | 0.00 | 66 | 1002.4 |
| 20260509233848 | 31 | 337 | 0.0 | 0.0 | 0.00 | 0.00 | 0.00 | 66 | 1002.3 |
| 20260509233745 | 31 | 340 | 0.0 | 0.0 | 0.00 | 0.00 | 0.00 | 66 | 1002.4 |
| 20260509233645 | 31 | 340 | 0.0 | 0.0 | 0.00 | 0.00 | 0.00 | 66 | 1002.4 |
| 20260509233546 | 31 | 340 | 0.0 | 0.0 | 0.00 | 0.00 | 0.00 | 66 | 1002.3 |
| 20260509233446 | 31 | 340 | 0.0 | 0.0 | 0.00 | 0.00 | 0.00 | 66 | 1002.3 |
| 20260509233347 | 31 | 340 | 0.0 | 0.0 | 0.00 | 0.00 | 0.00 | 64 | 1002.3 |
| 20260509233247 | 31 | 340 | 0.0 | 0.0 | 0.00 | 0.00 | 0.00 | 64 | 1002.3 |
| 20260509233145 | 31 | 340 | 0.0 | 0.0 | 0.00 | 0.00 | 0.00 | 65 | 1002.2 |
| 20260509233046 | 31 | 340 | 0.0 | 0.0 | 0.00 | 0.00 | 0.00 | 65 | 1002.2 |
| 20260509232945 | 31 | 340 | 0.0 | 0.0 | 0.00 | 0.00 | 0.00 | 65 | 1002.3 |
| 20260509232846 | 31 | 340 | 0.0 | 0.0 | 0.00 | 0.00 | 0.00 | 65 | 1002.2 |
| 20260509232746 | 31 | 340 | 0.0 | 0.0 | 0.00 | 0.00 | 0.00 | 65 | 1002.2 |
| 20260509232648 | 31 | 340 | 0.0 | 0.0 | 0.00 | 0.00 | 0.00 | 65 | 1002.2 |
| 20260509232545 | 31 | 340 | 0.0 | 0.0 | 0.00 | 0.00 | 0.00 | 66 | 1002.2 |
| 20260509232445 | 31 | 340 | 0.0 | 0.0 | 0.00 | 0.00 | 0.00 | 65 | 1002.2 |
| 20260509232346 | 31 | 340 | 0.0 | 0.0 | 0.00 | 0.00 | 0.00 | 65 | 1002.2 |
| 20260509232245 | 31 | 340 | 0.0 | 0.0 | 0.00 | 0.00 | 0.00 | 65 | 1002.2 |
| 20260509232147 | 31 | 340 | 0.0 | 0.0 | 0.00 | 0.00 | 0.00 | 65 | 1002.2 |
| 20260509232044 | 31 | 340 | 0.0 | 0.0 | 0.00 | 0.00 | 0.00 | 64 | 1002.1 |
| 20260509231947 | 31 | 340 | 0.0 | 0.0 | 0.00 | 0.00 | 0.00 | 64 | 1002.2 |
| 20260509231845 | 31 | 340 | 0.0 | 0.0 | 0.00 | 0.00 | 0.00 | 65 | 1002.1 |
| 20260509231747 | 31 | 340 | 0.0 | 0.0 | 0.00 | 0.00 | 0.00 | 64 | 1002.1 |
| 20260509231646 | 31 | 340 | 0.0 | 0.0 | 0.00 | 0.00 | 0.00 | 64 | 1002.1 |
| 20260509231546 | 31 | 340 | 0.0 | 0.0 | 0.00 | 0.00 | 0.00 | 63 | 1002.1 |
| 20260509231437 | 31 | 340 | 0.0 | 0.0 | 0.00 | 0.00 | 0.00 | 63 | 1002.1 |
| 20260509231333 | 31 | 340 | 0.0 | 4.8 | 0.00 | 0.00 | 0.00 | 65 | 1002.2 |
| 20260509231233 | 31 | 340 | 0.0 | 4.8 | 0.00 | 0.00 | 0.00 | 65 | 1002.1 |
| 20260509231131 | 31 | 340 | 0.0 | 4.8 | 0.00 | 0.00 | 0.00 | 64 | 1002.1 |
| 20260509231032 | 31 | 340 | 0.0 | 8.0 | 0.00 | 0.00 | 0.00 | 64 | 1002.2 |
| 20260509230932 | 31 | 340 | 0.0 | 8.0 | 0.00 | 0.00 | 0.00 | 64 | 1002.2 |
| 20260509230831 | 30 | 340 | 0.0 | 8.0 | 0.00 | 0.00 | 0.00 | 64 | 1002.2 |
| 20260509230732 | 31 | 340 | 0.0 | 8.0 | 0.00 | 0.00 | 0.00 | 64 | 1002.2 |
| 20260509230626 | 31 | 340 | 0.0 | 8.0 | 0.00 | 0.00 | 0.00 | 64 | 1002.2 |
| 20260509230524 | 31 | 340 | 1.6 | 8.0 | 0.00 | 0.00 | 0.00 | 65 | 1002.2 |
| 20260509230411 | 31 | 340 | 3.2 | 8.0 | 0.00 | 0.00 | 0.00 | 66 | 1002.2 |
| 20260509230309 | 30 | 337 | 3.2 | 8.0 | 0.00 | 0.00 | 0.00 | 66 | 1002.2 |
| 20260509230206 | 30 | 337 | 4.8 | 8.0 | 0.00 | 0.00 | 0.00 | 64 | 1002.3 |
| 20260509230105 | 30 | 337 | 6.4 | 8.0 | 0.00 | 0.00 | 0.00 | 64 | 1002.2 |
| 20260509230003 | 30 | 337 | 4.8 | 8.0 | 0.00 | 0.00 | 0.00 | 65 | 1002.1 |
| 20260509225902 | 30 | 337 | 3.2 | 8.0 | 0.00 | 0.00 | 0.00 | 65 | 1002.2 |
| 20260509225804 | 30 | 337 | 4.8 | 8.0 | 0.00 | 0.00 | 0.00 | 66 | 1002.1 |
| 20260509225704 | 30 | 337 | 4.8 | 8.0 | 0.00 | 0.00 | 0.00 | 66 | 1002.1 |
| 20260509225603 | 31 | 337 | 6.4 | 8.0 | 0.00 | 0.00 | 0.00 | 64 | 1002.0 |
| 20260509225505 | 31 | 337 | 6.4 | 8.0 | 0.00 | 0.00 | 0.00 | 64 | 1002.0 |
| 20260509225402 | 31 | 337 | 6.4 | 8.0 | 0.00 | 0.00 | 0.00 | 64 | 1002.0 |
| 20260509225306 | 31 | 341 | 4.8 | 8.0 | 0.00 | 0.00 | 0.00 | 65 | 1002.0 |
| 20260509225202 | 31 | 0 | 3.2 | 6.4 | 0.00 | 0.00 | 0.00 | 65 | 1001.9 |
| 20260509225104 | 31 | 0 | 3.2 | 6.4 | 0.00 | 0.00 | 0.00 | 64 | 1001.9 |
| 20260509225004 | 31 | 0 | 1.6 | 6.4 | 0.00 | 0.00 | 0.00 | 64 | 1001.8 |
| 20260509224904 | 31 | 0 | 1.6 | 6.4 | 0.00 | 0.00 | 0.00 | 63 | 1001.8 |
| 20260509224803 | 31 | 0 | 1.6 | 6.4 | 0.00 | 0.00 | 0.00 | 63 | 1001.7 |
| 20260509224702 | 31 | 0 | 3.2 | 6.4 | 0.00 | 0.00 | 0.00 | 63 | 1001.8 |
| 20260509224604 | 31 | 0 | 3.2 | 8.0 | 0.00 | 0.00 | 0.00 | 65 | 1001.8 |
| 20260509224502 | 31 | 0 | 3.2 | 8.0 | 0.00 | 0.00 | 0.00 | 65 | 1001.8 |
| 20260509224402 | 31 | 0 | 4.8 | 8.0 | 0.00 | 0.00 | 0.00 | 65 | 1001.8 |
| 20260509224304 | 31 | 333 | 4.8 | 8.0 | 0.00 | 0.00 | 0.00 | 64 | 1001.9 |
| 20260509224203 | 31 | 312 | 3.2 | 8.0 | 0.00 | 0.00 | 0.00 | 64 | 1001.9 |
| 20260509224101 | 31 | 309 | 4.8 | 8.0 | 0.00 | 0.00 | 0.00 | 64 | 1001.9 |
| 20260509224003 | 31 | 309 | 4.8 | 8.0 | 0.00 | 0.00 | 0.00 | 64 | 1001.9 |
| 20260509223903 | 31 | 309 | 4.8 | 8.0 | 0.00 | 0.00 | 0.00 | 64 | 1001.9 |
| 20260509223803 | 31 | 323 | 4.8 | 8.0 | 0.00 | 0.00 | 0.00 | 64 | 1001.9 |
| 20260509223703 | 31 | 336 | 4.8 | 8.0 | 0.00 | 0.00 | 0.00 | 64 | 1002.0 |
| 20260509223602 | 31 | 340 | 4.8 | 8.0 | 0.00 | 0.00 | 0.00 | 64 | 1002.0 |
| 20260509223504 | 31 | 317 | 4.8 | 8.0 | 0.00 | 0.00 | 0.00 | 64 | 1002.0 |
| 20260509223404 | 31 | 317 | 4.8 | 9.7 | 0.00 | 0.00 | 0.00 | 64 | 1002.1 |
| 20260509223302 | 31 | 317 | 4.8 | 9.7 | 0.00 | 0.00 | 0.00 | 64 | 1002.2 |
| 20260509223202 | 31 | 320 | 3.2 | 9.7 | 0.00 | 0.00 | 0.00 | 64 | 1002.2 |
| 20260509223103 | 31 | 340 | 6.4 | 9.7 | 0.00 | 0.00 | 0.00 | 65 | 1002.2 |
| 20260509223004 | 31 | 340 | 4.8 | 9.7 | 0.00 | 0.00 | 0.00 | 64 | 1002.1 |
| 20260509222903 | 31 | 334 | 4.8 | 9.7 | 0.00 | 0.00 | 0.00 | 64 | 1002.1 |
| 20260509222802 | 31 | 314 | 4.8 | 9.7 | 0.00 | 0.00 | 0.00 | 64 | 1002.0 |
| 20260509222704 | 31 | 295 | 6.4 | 9.7 | 0.00 | 0.00 | 0.00 | 63 | 1001.9 |
| 20260509222602 | 31 | 295 | 4.8 | 9.7 | 0.00 | 0.00 | 0.00 | 62 | 1002.0 |
| 20260509222506 | 31 | 295 | 6.4 | 9.7 | 0.00 | 0.00 | 0.00 | 62 | 1002.0 |
| 20260509222403 | 31 | 296 | 3.2 | 9.7 | 0.00 | 0.00 | 0.00 | 63 | 1001.9 |
| 20260509222306 | 31 | 259 | 0.0 | 6.4 | 0.00 | 0.00 | 0.00 | 63 | 1001.9 |
| 20260509222203 | 31 | 259 | 1.6 | 6.4 | 0.00 | 0.00 | 0.00 | 63 | 1001.9 |
| 20260509222102 | 31 | 259 | 1.6 | 8.0 | 0.00 | 0.00 | 0.00 | 63 | 1002.0 |
| 20260509222005 | 31 | 259 | 3.2 | 9.7 | 0.00 | 0.00 | 0.00 | 63 | 1002.0 |
| 20260509221903 | 31 | 281 | 3.2 | 9.7 | 0.00 | 0.00 | 0.00 | 64 | 1001.9 |
| 20260509221803 | 31 | 281 | 3.2 | 9.7 | 0.00 | 0.00 | 0.00 | 64 | 1001.8 |
| 20260509221704 | 31 | 281 | 1.6 | 9.7 | 0.00 | 0.00 | 0.00 | 64 | 1001.8 |
| 20260509221602 | 31 | 282 | 1.6 | 9.7 | 0.00 | 0.00 | 0.00 | 64 | 1001.8 |
| 20260509221505 | 31 | 282 | 1.6 | 9.7 | 0.00 | 0.00 | 0.00 | 65 | 1001.8 |
| 20260509221404 | 31 | 285 | 3.2 | 9.7 | 0.00 | 0.00 | 0.00 | 65 | 1001.8 |
| 20260509221302 | 31 | 285 | 4.8 | 9.7 | 0.00 | 0.00 | 0.00 | 65 | 1001.8 |
| 20260509221203 | 31 | 288 | 6.4 | 9.7 | 0.00 | 0.00 | 0.00 | 65 | 1001.8 |
| 20260509221102 | 31 | 343 | 6.4 | 9.7 | 0.00 | 0.00 | 0.00 | 65 | 1001.8 |
| 20260509221004 | 31 | 347 | 6.4 | 9.7 | 0.00 | 0.00 | 0.00 | 65 | 1001.8 |
| 20260509220902 | 31 | 333 | 6.4 | 8.0 | 0.00 | 0.00 | 0.00 | 65 | 1001.7 |
| 20260509220803 | 31 | 283 | 6.4 | 8.0 | 0.00 | 0.00 | 0.00 | 64 | 1001.8 |
| 20260509220704 | 32 | 306 | 6.4 | 8.0 | 0.00 | 0.00 | 0.00 | 65 | 1001.8 |
| 20260509220608 | 32 | 317 | 4.8 | 8.0 | 0.00 | 0.00 | 0.00 | 66 | 1001.8 |
| 20260509220504 | 32 | 319 | 3.2 | 6.4 | 0.00 | 0.00 | 0.00 | 66 | 1001.9 |
| 20260509220402 | 32 | 326 | 3.2 | 6.4 | 0.00 | 0.00 | 0.00 | 66 | 1001.9 |
| 20260509220303 | 32 | 326 | 1.6 | 6.4 | 0.00 | 0.00 | 0.00 | 64 | 1001.8 |
| 20260509220204 | 31 | 338 | 0.0 | 8.0 | 0.00 | 0.00 | 0.00 | 65 | 1001.9 |
| 20260509220002 | 31 | 338 | 1.6 | 8.0 | 0.00 | 0.00 | 0.00 | 64 | 1001.8 |
| 20260509215904 | 31 | 338 | 1.6 | 8.0 | 0.00 | 0.00 | 0.00 | 64 | 1001.8 |
| 20260509215802 | 31 | 338 | 3.2 | 8.0 | 0.00 | 0.00 | 0.00 | 64 | 1001.9 |
| 20260509215702 | 31 | 338 | 4.8 | 8.0 | 0.00 | 0.00 | 0.00 | 65 | 1001.8 |
| 20260509215603 | 31 | 340 | 3.2 | 9.7 | 0.00 | 0.00 | 0.00 | 65 | 1001.8 |
| 20260509215504 | 31 | 355 | 3.2 | 9.7 | 0.00 | 0.00 | 0.00 | 65 | 1001.8 |
| 20260509215402 | 31 | 355 | 6.4 | 9.7 | 0.00 | 0.00 | 0.00 | 65 | 1001.8 |
| 20260509215306 | 31 | 355 | 6.4 | 9.7 | 0.00 | 0.00 | 0.00 | 66 | 1001.9 |
| 20260509215202 | 31 | 355 | 4.8 | 9.7 | 0.00 | 0.00 | 0.00 | 66 | 1001.8 |
| 20260509215102 | 31 | 358 | 3.2 | 9.7 | 0.00 | 0.00 | 0.00 | 66 | 1001.9 |
| 20260509215004 | 31 | 281 | 3.2 | 9.7 | 0.00 | 0.00 | 0.00 | 66 | 1001.8 |
| 20260509214904 | 31 | 281 | 3.2 | 9.7 | 0.00 | 0.00 | 0.00 | 65 | 1001.8 |
| 20260509214802 | 31 | 281 | 4.8 | 9.7 | 0.00 | 0.00 | 0.00 | 65 | 1001.8 |
| 20260509214703 | 31 | 282 | 6.4 | 9.7 | 0.00 | 0.00 | 0.00 | 65 | 1001.8 |
| 20260509214603 | 31 | 275 | 3.2 | 8.0 | 0.00 | 0.00 | 0.00 | 65 | 1001.8 |
| 20260509214505 | 31 | 268 | 1.6 | 8.0 | 0.00 | 0.00 | 0.00 | 65 | 1001.8 |
| 20260509214404 | 31 | 268 | 3.2 | 9.7 | 0.00 | 0.00 | 0.00 | 65 | 1001.8 |
| 20260509214302 | 31 | 268 | 3.2 | 9.7 | 0.00 | 0.00 | 0.00 | 65 | 1001.8 |
| 20260509214201 | 31 | 250 | 0.0 | 9.7 | 0.00 | 0.00 | 0.00 | 66 | 1001.9 |
| 20260509214103 | 31 | 248 | 0.0 | 9.7 | 0.00 | 0.00 | 0.00 | 66 | 1001.8 |
| 20260509214002 | 31 | 248 | 1.6 | 9.7 | 0.00 | 0.00 | 0.00 | 67 | 1001.8 |
| 20260509213904 | 31 | 248 | 3.2 | 9.7 | 0.00 | 0.00 | 0.00 | 68 | 1001.8 |
| 20260509213802 | 31 | 248 | 6.4 | 9.7 | 0.00 | 0.00 | 0.00 | 67 | 1001.8 |
| 20260509213703 | 31 | 266 | 6.4 | 9.7 | 0.00 | 0.00 | 0.00 | 67 | 1001.8 |
| 20260509213602 | 31 | 264 | 6.4 | 9.7 | 0.00 | 0.00 | 0.00 | 66 | 1001.8 |
| 20260509213503 | 31 | 264 | 6.4 | 9.7 | 0.00 | 0.00 | 0.00 | 66 | 1001.8 |
| 20260509213403 | 31 | 261 | 1.6 | 8.0 | 0.00 | 0.00 | 0.00 | 68 | 1001.8 |
| 20260509213302 | 31 | 286 | 0.0 | 3.2 | 0.00 | 0.00 | 0.00 | 68 | 1001.8 |
| 20260509213202 | 31 | 286 | 0.0 | 3.2 | 0.00 | 0.00 | 0.00 | 66 | 1001.9 |
| 20260509213104 | 31 | 285 | 0.0 | 3.2 | 0.00 | 0.00 | 0.00 | 66 | 1001.9 |
| 20260509213002 | 31 | 283 | 0.0 | 3.2 | 0.00 | 0.00 | 0.00 | 66 | 1001.9 |
| 20260509212902 | 31 | 283 | 0.0 | 3.2 | 0.00 | 0.00 | 0.00 | 66 | 1001.8 |
| 20260509212804 | 31 | 283 | 0.0 | 3.2 | 0.00 | 0.00 | 0.00 | 66 | 1001.9 |
| 20260509212702 | 31 | 283 | 0.0 | 3.2 | 0.00 | 0.00 | 0.00 | 66 | 1001.8 |
| 20260509212601 | 31 | 283 | 0.0 | 3.2 | 0.00 | 0.00 | 0.00 | 66 | 1001.9 |
| 20260509212503 | 31 | 283 | 1.6 | 4.8 | 0.00 | 0.00 | 0.00 | 67 | 1001.9 |
| 20260509212404 | 31 | 283 | 0.0 | 8.0 | 0.00 | 0.00 | 0.00 | 67 | 1001.9 |
| 20260509212306 | 31 | 283 | 0.0 | 8.0 | 0.00 | 0.00 | 0.00 | 67 | 1002.0 |
| 20260509212204 | 31 | 283 | 0.0 | 8.0 | 0.00 | 0.00 | 0.00 | 66 | 1002.0 |
| 20260509212104 | 31 | 283 | 1.6 | 8.0 | 0.00 | 0.00 | 0.00 | 68 | 1002.0 |
| 20260509212002 | 31 | 283 | 1.6 | 8.0 | 0.00 | 0.00 | 0.00 | 67 | 1001.9 |
| 20260509211903 | 31 | 283 | 3.2 | 8.0 | 0.00 | 0.00 | 0.00 | 67 | 1002.0 |
| 20260509211803 | 31 | 288 | 3.2 | 8.0 | 0.00 | 0.00 | 0.00 | 66 | 1002.0 |
| 20260509211702 | 31 | 288 | 3.2 | 8.0 | 0.00 | 0.00 | 0.00 | 68 | 1002.0 |
| 20260509211603 | 31 | 288 | 4.8 | 8.0 | 0.00 | 0.00 | 0.00 | 68 | 1002.0 |
| 20260509211504 | 31 | 288 | 4.8 | 8.0 | 0.00 | 0.00 | 0.00 | 68 | 1002.0 |
| 20260509211402 | 31 | 286 | 3.2 | 6.4 | 0.00 | 0.00 | 0.00 | 68 | 1002.0 |
| 20260509211303 | 31 | 288 | 3.2 | 6.4 | 0.00 | 0.00 | 0.00 | 69 | 1002.0 |
| 20260509211203 | 31 | 288 | 3.2 | 6.4 | 0.00 | 0.00 | 0.00 | 67 | 1002.0 |
| 20260509211103 | 31 | 290 | 3.2 | 6.4 | 0.00 | 0.00 | 0.00 | 67 | 1002.0 |
| 20260509211002 | 31 | 290 | 3.2 | 6.4 | 0.00 | 0.00 | 0.00 | 67 | 1002.0 |
| 20260509210903 | 31 | 290 | 4.8 | 6.4 | 0.00 | 0.00 | 0.00 | 67 | 1002.0 |
| 20260509210804 | 31 | 290 | 4.8 | 6.4 | 0.00 | 0.00 | 0.00 | 67 | 1002.0 |
| 20260509210703 | 31 | 319 | 4.8 | 6.4 | 0.00 | 0.00 | 0.00 | 67 | 1002.1 |
| 20260509210603 | 31 | 0 | 1.6 | 6.4 | 0.00 | 0.00 | 0.00 | 68 | 1002.1 |
| 20260509210504 | 31 | 0 | 1.6 | 8.0 | 0.00 | 0.00 | 0.00 | 68 | 1002.1 |
| 20260509210403 | 31 | 0 | 0.0 | 8.0 | 0.00 | 0.00 | 0.00 | 67 | 1002.1 |
| 20260509210304 | 31 | 0 | 1.6 | 8.0 | 0.00 | 0.00 | 0.00 | 67 | 1002.2 |
| 20260509210202 | 31 | 0 | 0.0 | 8.0 | 0.00 | 0.00 | 0.00 | 67 | 1002.2 |
| 20260509210002 | 31 | 0 | 1.6 | 9.7 | 0.00 | 0.00 | 0.00 | 68 | 1002.1 |
| 20260509205902 | 31 | 0 | 3.2 | 9.7 | 0.00 | 0.00 | 0.00 | 67 | 1002.2 |
| 20260509205804 | 30 | 0 | 3.2 | 9.7 | 0.00 | 0.00 | 0.00 | 68 | 1002.2 |
| 20260509205702 | 30 | 350 | 3.2 | 9.7 | 0.00 | 0.00 | 0.00 | 68 | 1002.2 |
| 20260509205602 | 30 | 350 | 4.8 | 9.7 | 0.00 | 0.00 | 0.00 | 68 | 1002.2 |
| 20260509205505 | 30 | 300 | 3.2 | 9.7 | 0.00 | 0.00 | 0.00 | 68 | 1002.2 |
| 20260509205403 | 30 | 300 | 3.2 | 9.7 | 0.00 | 0.00 | 0.00 | 68 | 1002.2 |
| 20260509205306 | 30 | 300 | 3.2 | 9.7 | 0.00 | 0.00 | 0.00 | 69 | 1002.3 |
| 20260509205202 | 30 | 302 | 4.8 | 9.7 | 0.00 | 0.00 | 0.00 | 68 | 1002.3 |
| 20260509205103 | 30 | 300 | 6.4 | 9.7 | 0.00 | 0.00 | 0.00 | 70 | 1002.3 |
| 20260509205004 | 30 | 303 | 6.4 | 9.7 | 0.00 | 0.00 | 0.00 | 70 | 1002.4 |
| 20260509204903 | 30 | 306 | 6.4 | 9.7 | 0.00 | 0.00 | 0.00 | 69 | 1002.4 |
| 20260509204803 | 31 | 326 | 6.4 | 9.7 | 0.00 | 0.00 | 0.00 | 70 | 1002.4 |
| 20260509204702 | 31 | 327 | 6.4 | 9.7 | 0.00 | 0.00 | 0.00 | 70 | 1002.5 |
| 20260509204603 | 30 | 333 | 4.8 | 9.7 | 0.00 | 0.00 | 0.00 | 70 | 1002.5 |
| 20260509204505 | 30 | 289 | 3.2 | 9.7 | 0.00 | 0.00 | 0.00 | 69 | 1002.5 |
| 20260509204402 | 30 | 289 | 3.2 | 9.7 | 0.00 | 0.00 | 0.00 | 69 | 1002.5 |
| 20260509204304 | 30 | 292 | 4.8 | 9.7 | 0.00 | 0.00 | 0.00 | 68 | 1002.5 |
| 20260509204204 | 30 | 313 | 6.4 | 9.7 | 0.00 | 0.00 | 0.00 | 68 | 1002.5 |
| 20260509204103 | 30 | 314 | 8.0 | 9.7 | 0.00 | 0.00 | 0.00 | 69 | 1002.5 |
| 20260509204002 | 30 | 354 | 6.4 | 9.7 | 0.00 | 0.00 | 0.00 | 70 | 1002.5 |
| 20260509203903 | 30 | 340 | 6.4 | 9.7 | 0.00 | 0.00 | 0.00 | 69 | 1002.6 |
| 20260509203804 | 30 | 331 | 6.4 | 9.7 | 0.00 | 0.00 | 0.00 | 69 | 1002.5 |
| 20260509203703 | 30 | 28 | 3.2 | 8.0 | 0.00 | 0.00 | 0.00 | 69 | 1002.6 |
| 20260509203604 | 30 | 32 | 3.2 | 6.4 | 0.00 | 0.00 | 0.00 | 69 | 1002.7 |
| 20260509203503 | 30 | 25 | 3.2 | 6.4 | 0.00 | 0.00 | 0.00 | 68 | 1002.6 |
| 20260509203403 | 30 | 25 | 3.2 | 6.4 | 0.00 | 0.00 | 0.00 | 70 | 1002.6 |
| 20260509203303 | 30 | 23 | 4.8 | 6.4 | 0.00 | 0.00 | 0.00 | 68 | 1002.6 |
| 20260509203202 | 30 | 23 | 4.8 | 8.0 | 0.00 | 0.00 | 0.00 | 69 | 1002.6 |
| 20260509203102 | 30 | 23 | 3.2 | 9.7 | 0.00 | 0.00 | 0.00 | 68 | 1002.7 |
| 20260509203002 | 30 | 3 | 0.0 | 9.7 | 0.00 | 0.00 | 0.00 | 68 | 1002.7 |
| 20260509202902 | 30 | 350 | 0.0 | 9.7 | 0.00 | 0.00 | 0.00 | 68 | 1002.7 |
| 20260509202803 | 30 | 350 | 0.0 | 9.7 | 0.00 | 0.00 | 0.00 | 68 | 1002.6 |
| 20260509202703 | 30 | 350 | 0.0 | 9.7 | 0.00 | 0.00 | 0.00 | 69 | 1002.7 |
| 20260509202602 | 30 | 348 | 1.6 | 9.7 | 0.00 | 0.00 | 0.00 | 69 | 1002.7 |
| 20260509202503 | 30 | 348 | 3.2 | 9.7 | 0.00 | 0.00 | 0.00 | 70 | 1002.8 |
| 20260509202404 | 30 | 351 | 4.8 | 9.7 | 0.00 | 0.00 | 0.00 | 70 | 1002.7 |
| 20260509202306 | 30 | 341 | 6.4 | 9.7 | 0.00 | 0.00 | 0.00 | 71 | 1002.7 |
| 20260509202204 | 30 | 344 | 3.2 | 11.3 | 0.00 | 0.00 | 0.00 | 71 | 1002.7 |
| 20260509202103 | 30 | 357 | 3.2 | 14.5 | 0.00 | 0.00 | 0.00 | 72 | 1002.8 |
| 20260509202006 | 30 | 353 | 4.8 | 14.5 | 0.00 | 0.00 | 0.00 | 72 | 1002.7 |
| 20260509201902 | 30 | 337 | 4.8 | 14.5 | 0.00 | 0.00 | 0.00 | 72 | 1002.8 |
| 20260509201802 | 30 | 296 | 4.8 | 14.5 | 0.00 | 0.00 | 0.00 | 70 | 1002.7 |
| 20260509201703 | 30 | 327 | 6.4 | 14.5 | 0.00 | 0.00 | 0.00 | 70 | 1002.8 |
| 20260509201604 | 30 | 327 | 8.0 | 14.5 | 0.00 | 0.00 | 0.00 | 71 | 1002.7 |
| 20260509201503 | 30 | 336 | 6.4 | 14.5 | 0.00 | 0.00 | 0.00 | 70 | 1002.7 |
| 20260509201402 | 30 | 0 | 6.4 | 14.5 | 0.00 | 0.00 | 0.00 | 70 | 1002.8 |
| 20260509201303 | 30 | 0 | 8.0 | 14.5 | 0.00 | 0.00 | 0.00 | 70 | 1002.8 |
| 20260509201203 | 30 | 351 | 6.4 | 14.5 | 0.00 | 0.00 | 0.00 | 71 | 1002.8 |
| 20260509201102 | 30 | 6 | 4.8 | 14.5 | 0.00 | 0.00 | 0.00 | 70 | 1002.8 |
| 20260509201003 | 30 | 7 | 3.2 | 14.5 | 0.00 | 0.00 | 0.00 | 72 | 1002.9 |
| 20260509200904 | 30 | 4 | 4.8 | 14.5 | 0.00 | 0.00 | 0.00 | 72 | 1002.9 |
| 20260509200803 | 30 | 0 | 8.0 | 14.5 | 0.00 | 0.00 | 0.00 | 71 | 1002.9 |
| 20260509200704 | 30 | 344 | 8.0 | 14.5 | 0.00 | 0.00 | 0.00 | 71 | 1002.8 |
| 20260509200602 | 30 | 319 | 8.0 | 14.5 | 0.00 | 0.00 | 0.00 | 71 | 1002.8 |
| 20260509200501 | 30 | 271 | 6.4 | 14.5 | 0.00 | 0.00 | 0.00 | 71 | 1002.9 |
| 20260509200401 | 30 | 238 | 4.8 | 9.7 | 0.00 | 0.00 | 0.00 | 71 | 1002.9 |
| 20260509200302 | 30 | 289 | 6.4 | 9.7 | 0.00 | 0.00 | 0.00 | 71 | 1002.8 |
| 20260509200203 | 30 | 298 | 4.8 | 9.7 | 0.00 | 0.00 | 0.00 | 72 | 1002.9 |
| 20260509200104 | 30 | 285 | 4.8 | 9.7 | 0.00 | 0.00 | 0.00 | 72 | 1003.0 |
| 20260509200005 | 30 | 302 | 6.4 | 9.7 | 0.00 | 0.00 | 0.00 | 71 | 1002.9 |
| 20260509195902 | 30 | 302 | 6.4 | 9.7 | 0.00 | 0.00 | 0.00 | 71 | 1003.0 |
| 20260509195803 | 30 | 298 | 6.4 | 9.7 | 0.00 | 0.00 | 0.00 | 71 | 1003.0 |
| 20260509195702 | 30 | 292 | 6.4 | 9.7 | 0.00 | 0.00 | 0.00 | 72 | 1003.1 |
| 20260509195604 | 30 | 303 | 4.8 | 9.7 | 0.00 | 0.00 | 0.00 | 70 | 1003.1 |
| 20260509195505 | 30 | 310 | 1.6 | 9.7 | 0.00 | 0.00 | 0.00 | 71 | 1003.1 |
| 20260509195402 | 30 | 276 | 0.0 | 9.7 | 0.00 | 0.00 | 0.00 | 72 | 1003.0 |
| 20260509195306 | 30 | 278 | 6.4 | 9.7 | 0.00 | 0.00 | 0.00 | 73 | 1003.1 |
| 20260509195203 | 30 | 278 | 8.0 | 9.7 | 0.00 | 0.00 | 0.00 | 73 | 1003.1 |
| 20260509195103 | 30 | 281 | 8.0 | 9.7 | 0.00 | 0.00 | 0.00 | 71 | 1003.1 |
| 20260509195004 | 30 | 295 | 8.0 | 9.7 | 0.00 | 0.00 | 0.00 | 71 | 1003.0 |
| 20260509194902 | 30 | 299 | 8.0 | 9.7 | 0.00 | 0.00 | 0.00 | 71 | 1003.1 |
| 20260509194804 | 30 | 298 | 8.0 | 9.7 | 0.00 | 0.00 | 0.00 | 71 | 1003.0 |
| 20260509194704 | 30 | 312 | 8.0 | 9.7 | 0.00 | 0.00 | 0.00 | 72 | 1003.1 |
| 20260509194602 | 30 | 309 | 6.4 | 9.7 | 0.00 | 0.00 | 0.00 | 72 | 1003.1 |
| 20260509194504 | 30 | 321 | 4.8 | 9.7 | 0.00 | 0.00 | 0.00 | 72 | 1003.0 |
| 20260509194403 | 30 | 262 | 4.8 | 9.7 | 0.00 | 0.00 | 0.00 | 71 | 1003.1 |
| 20260509194305 | 30 | 261 | 6.4 | 9.7 | 0.00 | 0.00 | 0.00 | 71 | 1003.1 |
| 20260509194201 | 30 | 258 | 6.4 | 11.3 | 0.00 | 0.00 | 0.00 | 71 | 1003.1 |
| 20260509194103 | 30 | 290 | 6.4 | 11.3 | 0.00 | 0.00 | 0.00 | 71 | 1003.1 |
| 20260509194004 | 30 | 285 | 6.4 | 11.3 | 0.00 | 0.00 | 0.00 | 71 | 1003.1 |
| 20260509193904 | 30 | 279 | 6.4 | 11.3 | 0.00 | 0.00 | 0.00 | 71 | 1003.1 |
| 20260509193803 | 30 | 285 | 4.8 | 11.3 | 0.00 | 0.00 | 0.00 | 72 | 1003.1 |
| 20260509193702 | 30 | 358 | 3.2 | 11.3 | 0.00 | 0.00 | 0.00 | 71 | 1003.1 |
| 20260509193603 | 30 | 0 | 3.2 | 11.3 | 0.00 | 0.00 | 0.00 | 71 | 1003.0 |
| 20260509193502 | 30 | 0 | 6.4 | 11.3 | 0.00 | 0.00 | 0.00 | 71 | 1003.2 |
| 20260509193404 | 30 | 340 | 8.0 | 16.1 | 0.00 | 0.00 | 0.00 | 71 | 1003.2 |
| 20260509193304 | 30 | 317 | 9.7 | 16.1 | 0.00 | 0.00 | 0.00 | 71 | 1003.2 |
| 20260509193201 | 30 | 326 | 6.4 | 16.1 | 0.00 | 0.00 | 0.00 | 72 | 1003.1 |
| 20260509193103 | 30 | 262 | 6.4 | 16.1 | 0.00 | 0.00 | 0.00 | 72 | 1003.2 |
| 20260509193005 | 30 | 303 | 6.4 | 16.1 | 0.00 | 0.00 | 0.00 | 72 | 1003.2 |
| 20260509192902 | 30 | 285 | 6.4 | 16.1 | 0.00 | 0.00 | 0.00 | 71 | 1003.3 |
| 20260509192802 | 30 | 296 | 6.4 | 16.1 | 0.00 | 0.00 | 0.00 | 71 | 1003.3 |
| 20260509192658 | 30 | 283 | 8.0 | 16.1 | 0.00 | 0.00 | 0.00 | 71 | 1003.3 |
| 20260509192553 | 30 | 298 | 11.3 | 16.1 | 0.00 | 0.00 | 0.00 | 70 | 1003.4 |
| 20260509192441 | 30 | 285 | 8.0 | 16.1 | 0.00 | 0.00 | 0.00 | 72 | 1003.3 |
| 20260509192342 | 30 | 296 | 3.2 | 11.3 | 0.00 | 0.00 | 0.00 | 70 | 1003.3 |
| 20260509192239 | 30 | 295 | 4.8 | 11.3 | 0.00 | 0.00 | 0.00 | 70 | 1003.2 |
| 20260509192141 | 30 | 295 | 8.0 | 11.3 | 0.00 | 0.00 | 0.00 | 70 | 1003.3 |
| 20260509192040 | 30 | 293 | 6.4 | 11.3 | 0.00 | 0.00 | 0.00 | 71 | 1003.3 |
| 20260509191940 | 30 | 288 | 3.2 | 9.7 | 0.00 | 0.00 | 0.00 | 72 | 1003.3 |
| 20260509191841 | 30 | 0 | 3.2 | 9.7 | 0.00 | 0.00 | 0.00 | 72 | 1003.4 |
| 20260509191741 | 30 | 0 | 4.8 | 9.7 | 0.00 | 0.00 | 0.00 | 71 | 1003.3 |
| 20260509191639 | 30 | 353 | 3.2 | 9.7 | 0.00 | 0.00 | 0.00 | 71 | 1003.4 |
| 20260509191539 | 29 | 314 | 1.6 | 9.7 | 0.00 | 0.00 | 0.00 | 71 | 1003.4 |
| 20260509191439 | 29 | 314 | 3.2 | 9.7 | 0.00 | 0.00 | 0.00 | 71 | 1003.4 |
| 20260509191340 | 29 | 314 | 4.8 | 9.7 | 0.00 | 0.00 | 0.00 | 71 | 1003.4 |
| 20260509191239 | 30 | 329 | 6.4 | 9.7 | 0.00 | 0.00 | 0.00 | 72 | 1003.4 |
| 20260509191139 | 30 | 310 | 6.4 | 9.7 | 0.00 | 0.00 | 0.00 | 72 | 1003.4 |
| 20260509191039 | 30 | 305 | 4.8 | 8.0 | 0.00 | 0.00 | 0.00 | 72 | 1003.4 |
| 20260509190931 | 30 | 0 | 4.8 | 8.0 | 0.00 | 0.00 | 0.00 | 71 | 1003.4 |
| 20260509190832 | 30 | 281 | 4.8 | 8.0 | 0.00 | 0.00 | 0.00 | 70 | 1003.3 |
| 20260509190731 | 30 | 281 | 4.8 | 8.0 | 0.00 | 0.00 | 0.00 | 71 | 1003.3 |
| 20260509190631 | 30 | 269 | 6.4 | 8.0 | 0.00 | 0.00 | 0.00 | 71 | 1003.4 |
| 20260509190531 | 29 | 262 | 4.8 | 8.0 | 0.00 | 0.00 | 0.00 | 72 | 1003.5 |
| 20260509190433 | 29 | 295 | 3.2 | 8.0 | 0.00 | 0.00 | 0.00 | 72 | 1003.4 |
| 20260509190330 | 29 | 269 | 3.2 | 8.0 | 0.00 | 0.00 | 0.00 | 71 | 1003.4 |
| 20260509190231 | 29 | 283 | 6.4 | 8.0 | 0.00 | 0.00 | 0.00 | 73 | 1003.4 |
| 20260509190125 | 29 | 299 | 4.8 | 8.0 | 0.00 | 0.00 | 0.00 | 72 | 1003.5 |
| 20260509190025 | 29 | 39 | 1.6 | 8.0 | 0.00 | 0.00 | 0.00 | 74 | 1003.4 |
| 20260509185923 | 29 | 42 | 3.2 | 8.0 | 0.00 | 0.00 | 0.00 | 73 | 1003.4 |
| 20260509185814 | 28 | 42 | 4.8 | 8.0 | 0.00 | 0.00 | 0.00 | 73 | 1003.4 |
| 20260509185711 | 28 | 31 | 4.8 | 8.0 | 0.00 | 0.00 | 0.00 | 72 | 1003.4 |
| 20260509185610 | 29 | 8 | 4.8 | 6.4 | 0.00 | 0.00 | 0.00 | 72 | 1003.4 |
| 20260509185504 | 29 | 0 | 4.8 | 6.4 | 0.00 | 0.00 | 0.00 | 72 | 1003.5 |
| 20260509185403 | 29 | 337 | 4.8 | 8.0 | 0.00 | 0.00 | 0.00 | 72 | 1003.5 |
| 20260509185306 | 29 | 312 | 4.8 | 8.0 | 0.00 | 0.00 | 0.00 | 71 | 1003.4 |
| 20260509185203 | 29 | 102 | 3.2 | 8.0 | 0.00 | 0.00 | 0.00 | 71 | 1003.5 |
| 20260509185103 | 29 | 104 | 1.6 | 8.0 | 0.00 | 0.00 | 0.00 | 71 | 1003.4 |
| 20260509185002 | 29 | 104 | 0.0 | 8.0 | 0.00 | 0.00 | 0.00 | 71 | 1003.6 |
| 20260509184902 | 29 | 104 | 1.6 | 8.0 | 0.00 | 0.00 | 0.00 | 72 | 1003.5 |
| 20260509184804 | 29 | 104 | 1.6 | 8.0 | 0.00 | 0.00 | 0.00 | 72 | 1003.5 |
| 20260509184703 | 29 | 104 | 3.2 | 8.0 | 0.00 | 0.00 | 0.00 | 72 | 1003.5 |
| 20260509184603 | 29 | 104 | 4.8 | 8.0 | 0.00 | 0.00 | 0.00 | 72 | 1003.5 |
| 20260509184505 | 29 | 104 | 4.8 | 8.0 | 0.00 | 0.00 | 0.00 | 72 | 1003.4 |
| 20260509184403 | 29 | 106 | 3.2 | 8.0 | 0.00 | 0.00 | 0.00 | 70 | 1003.4 |
| 20260509184302 | 29 | 106 | 3.2 | 8.0 | 0.00 | 0.00 | 0.00 | 70 | 1003.5 |
| 20260509184202 | 29 | 106 | 4.8 | 8.0 | 0.00 | 0.00 | 0.00 | 70 | 1003.5 |
| 20260509184104 | 30 | 104 | 4.8 | 8.0 | 0.00 | 0.00 | 0.00 | 70 | 1003.6 |
| 20260509184004 | 30 | 102 | 3.2 | 8.0 | 0.00 | 0.00 | 0.00 | 71 | 1003.5 |
| 20260509183902 | 30 | 155 | 3.2 | 6.4 | 0.00 | 0.00 | 0.00 | 71 | 1003.6 |
| 20260509183802 | 30 | 157 | 1.6 | 6.4 | 0.00 | 0.00 | 0.00 | 71 | 1003.7 |
| 20260509183704 | 30 | 157 | 3.2 | 6.4 | 0.00 | 0.00 | 0.00 | 71 | 1003.7 |
| 20260509183603 | 30 | 157 | 3.2 | 6.4 | 0.00 | 0.00 | 0.00 | 71 | 1003.6 |
| 20260509183502 | 30 | 158 | 3.2 | 6.4 | 0.00 | 0.00 | 0.00 | 71 | 1003.8 |
| 20260509183403 | 30 | 158 | 1.6 | 6.4 | 0.00 | 0.00 | 0.00 | 71 | 1003.7 |
| 20260509183302 | 30 | 165 | 0.0 | 4.8 | 0.00 | 0.00 | 0.00 | 71 | 1003.7 |
| 20260509183202 | 30 | 165 | 1.6 | 4.8 | 0.00 | 0.00 | 0.00 | 72 | 1003.8 |
| 20260509183103 | 30 | 165 | 3.2 | 6.4 | 0.00 | 0.00 | 0.00 | 71 | 1003.7 |
| 20260509183002 | 30 | 166 | 1.6 | 6.4 | 0.00 | 0.00 | 0.00 | 71 | 1003.7 |
| 20260509182902 | 30 | 161 | 0.0 | 6.4 | 0.00 | 0.00 | 0.00 | 72 | 1003.7 |
| 20260509182802 | 29 | 159 | 0.0 | 6.4 | 0.00 | 0.00 | 0.00 | 71 | 1003.8 |
| 20260509182704 | 29 | 159 | 0.0 | 6.4 | 0.00 | 0.00 | 0.00 | 70 | 1003.8 |
| 20260509182604 | 30 | 159 | 1.6 | 6.4 | 0.00 | 0.00 | 0.00 | 71 | 1003.8 |
| 20260509182504 | 30 | 159 | 1.6 | 6.4 | 0.00 | 0.00 | 0.00 | 71 | 1003.8 |
| 20260509182402 | 30 | 238 | 1.6 | 6.4 | 0.00 | 0.00 | 0.00 | 71 | 1003.9 |
| 20260509182306 | 30 | 238 | 3.2 | 6.4 | 0.00 | 0.00 | 0.00 | 72 | 1004.0 |
| 20260509182204 | 30 | 238 | 4.8 | 6.4 | 0.00 | 0.00 | 0.00 | 72 | 1003.9 |
| 20260509182103 | 30 | 252 | 1.6 | 6.4 | 0.00 | 0.00 | 0.00 | 72 | 1003.9 |
| 20260509182002 | 30 | 145 | 1.6 | 4.8 | 0.00 | 0.00 | 0.00 | 72 | 1003.9 |
| 20260509181904 | 30 | 140 | 1.6 | 4.8 | 0.00 | 0.00 | 0.00 | 73 | 1003.9 |
| 20260509181802 | 29 | 135 | 0.0 | 4.8 | 0.00 | 0.00 | 0.00 | 72 | 1004.0 |
| 20260509181703 | 29 | 135 | 1.6 | 4.8 | 0.00 | 0.00 | 0.00 | 72 | 1003.9 |
| 20260509181604 | 29 | 134 | 1.6 | 4.8 | 0.00 | 0.00 | 0.00 | 72 | 1003.9 |
| 20260509181503 | 29 | 134 | 1.6 | 4.8 | 0.00 | 0.00 | 0.00 | 73 | 1003.9 |
| 20260509181404 | 29 | 133 | 0.0 | 6.4 | 0.00 | 0.00 | 0.00 | 72 | 1003.8 |
| 20260509181302 | 29 | 176 | 0.0 | 6.4 | 0.00 | 0.00 | 0.00 | 72 | 1003.9 |
| 20260509181204 | 29 | 176 | 0.0 | 6.4 | 0.00 | 0.00 | 0.00 | 72 | 1003.9 |
| 20260509181102 | 29 | 176 | 0.0 | 6.4 | 0.00 | 0.00 | 0.00 | 74 | 1003.9 |
| 20260509181002 | 29 | 176 | 0.0 | 6.4 | 0.00 | 0.00 | 0.00 | 74 | 1003.9 |
| 20260509180903 | 29 | 178 | 0.0 | 6.4 | 0.00 | 0.00 | 0.00 | 74 | 1004.0 |
| 20260509180802 | 29 | 178 | 0.0 | 6.4 | 0.00 | 0.00 | 0.00 | 74 | 1004.0 |
| 20260509180703 | 29 | 178 | 0.0 | 6.4 | 0.00 | 0.00 | 0.00 | 73 | 1004.1 |
| 20260509180604 | 29 | 178 | 3.2 | 6.4 | 0.00 | 0.00 | 0.00 | 73 | 1004.1 |
| 20260509180502 | 29 | 178 | 3.2 | 6.4 | 0.00 | 0.00 | 0.00 | 72 | 1004.1 |
| 20260509180403 | 29 | 164 | 1.6 | 6.4 | 0.00 | 0.00 | 0.00 | 72 | 1004.1 |
| 20260509180302 | 29 | 165 | 3.2 | 6.4 | 0.00 | 0.00 | 0.00 | 72 | 1004.2 |
| 20260509180203 | 29 | 165 | 3.2 | 6.4 | 0.00 | 0.00 | 0.00 | 73 | 1004.1 |
| 20260509180104 | 29 | 165 | 3.2 | 6.4 | 0.00 | 0.00 | 0.00 | 74 | 1004.3 |
| 20260509180004 | 29 | 166 | 3.2 | 6.4 | 0.00 | 0.00 | 0.00 | 74 | 1004.3 |
| 20260509175902 | 29 | 159 | 3.2 | 6.4 | 0.00 | 0.00 | 0.00 | 74 | 1004.3 |
| 20260509175802 | 29 | 165 | 3.2 | 6.4 | 0.00 | 0.00 | 0.00 | 74 | 1004.3 |
| 20260509175703 | 29 | 155 | 3.2 | 9.7 | 0.00 | 0.00 | 0.00 | 74 | 1004.2 |
| 20260509175602 | 29 | 155 | 3.2 | 9.7 | 0.00 | 0.00 | 0.00 | 74 | 1004.3 |
| 20260509175504 | 29 | 155 | 1.6 | 9.7 | 0.00 | 0.00 | 0.00 | 74 | 1004.3 |
| 20260509175402 | 28 | 154 | 1.6 | 9.7 | 0.00 | 0.00 | 0.00 | 74 | 1004.2 |
| 20260509175306 | 28 | 154 | 1.6 | 9.7 | 0.00 | 0.00 | 0.00 | 74 | 1004.3 |
| 20260509175202 | 28 | 154 | 3.2 | 9.7 | 0.00 | 0.00 | 0.00 | 73 | 1004.3 |
| 20260509175103 | 28 | 152 | 1.6 | 9.7 | 0.00 | 0.00 | 0.00 | 73 | 1004.3 |
| 20260509175004 | 28 | 152 | 3.2 | 9.7 | 0.00 | 0.00 | 0.00 | 74 | 1004.3 |
| 20260509174902 | 28 | 154 | 4.8 | 9.7 | 0.00 | 0.00 | 0.00 | 74 | 1004.5 |
| 20260509174803 | 28 | 149 | 6.4 | 9.7 | 0.00 | 0.00 | 0.00 | 74 | 1004.4 |
| 20260509174703 | 28 | 158 | 4.8 | 9.7 | 0.00 | 0.00 | 0.00 | 74 | 1004.4 |
| 20260509174603 | 28 | 154 | 3.2 | 9.7 | 0.00 | 0.00 | 0.00 | 75 | 1004.4 |
| 20260509174504 | 28 | 113 | 4.8 | 9.7 | 0.00 | 0.00 | 0.00 | 75 | 1004.5 |
| 20260509174404 | 28 | 113 | 4.8 | 11.3 | 0.00 | 0.00 | 0.00 | 75 | 1004.5 |
| 20260509174302 | 28 | 149 | 3.2 | 11.3 | 0.00 | 0.00 | 0.00 | 75 | 1004.5 |
| 20260509174202 | 28 | 154 | 4.8 | 11.3 | 0.00 | 0.00 | 0.00 | 75 | 1004.5 |
| 20260509174102 | 28 | 152 | 6.4 | 11.3 | 0.00 | 0.00 | 0.00 | 75 | 1004.5 |
| 20260509174004 | 28 | 144 | 6.4 | 11.3 | 0.00 | 0.00 | 0.00 | 75 | 1004.4 |
| 20260509173904 | 28 | 144 | 6.4 | 11.3 | 0.00 | 0.00 | 0.00 | 75 | 1004.4 |
| 20260509173804 | 28 | 135 | 4.8 | 11.3 | 0.00 | 0.00 | 0.00 | 76 | 1004.4 |
| 20260509173704 | 28 | 157 | 6.4 | 11.3 | 0.00 | 0.00 | 0.00 | 76 | 1004.4 |
| 20260509173603 | 28 | 165 | 8.0 | 11.3 | 0.00 | 0.00 | 0.00 | 76 | 1004.4 |
| 20260509173503 | 28 | 134 | 4.8 | 11.3 | 0.00 | 0.00 | 0.00 | 76 | 1004.4 |
| 20260509173402 | 28 | 171 | 3.2 | 11.3 | 0.00 | 0.00 | 0.00 | 76 | 1004.4 |
| 20260509173302 | 28 | 200 | 4.8 | 11.3 | 0.00 | 0.00 | 0.00 | 76 | 1004.5 |
| 20260509173202 | 28 | 199 | 4.8 | 11.3 | 0.00 | 0.00 | 0.00 | 77 | 1004.5 |
| 20260509173104 | 28 | 199 | 6.4 | 11.3 | 0.00 | 0.00 | 0.00 | 76 | 1004.5 |
| 20260509173004 | 28 | 219 | 4.8 | 11.3 | 0.00 | 0.00 | 0.00 | 76 | 1004.6 |
| 20260509172902 | 28 | 227 | 6.4 | 11.3 | 0.00 | 0.00 | 0.00 | 76 | 1004.6 |
| 20260509172804 | 28 | 145 | 6.4 | 11.3 | 0.00 | 0.00 | 0.00 | 76 | 1004.6 |
| 20260509172703 | 28 | 179 | 6.4 | 11.3 | 0.00 | 0.00 | 0.00 | 76 | 1004.7 |
| 20260509172602 | 28 | 204 | 8.0 | 11.3 | 0.00 | 0.00 | 0.00 | 76 | 1004.7 |
| 20260509172504 | 28 | 193 | 6.4 | 11.3 | 0.00 | 0.00 | 0.00 | 76 | 1004.7 |
| 20260509172402 | 28 | 176 | 4.8 | 11.3 | 0.00 | 0.00 | 0.00 | 76 | 1004.7 |
| 20260509172306 | 28 | 217 | 4.8 | 11.3 | 0.00 | 0.00 | 0.00 | 77 | 1004.7 |
| 20260509172203 | 28 | 169 | 4.8 | 11.3 | 0.00 | 0.00 | 0.00 | 76 | 1004.7 |
| 20260509172103 | 28 | 173 | 6.4 | 11.3 | 0.00 | 0.00 | 0.00 | 77 | 1004.6 |
| 20260509172000 | 28 | 180 | 4.8 | 11.3 | 0.00 | 0.00 | 0.00 | 77 | 1004.6 |
| 20260509171900 | 28 | 175 | 3.2 | 9.7 | 0.00 | 0.00 | 0.00 | 77 | 1004.6 |
| 20260509171749 | 28 | 148 | 4.8 | 11.3 | 0.00 | 0.00 | 0.00 | 77 | 1004.6 |
| 20260509171639 | 28 | 145 | 6.4 | 16.1 | 0.00 | 0.00 | 0.00 | 78 | 1004.6 |
| 20260509171538 | 28 | 202 | 4.8 | 16.1 | 0.00 | 0.00 | 0.00 | 77 | 1004.7 |
| 20260509171438 | 28 | 180 | 3.2 | 16.1 | 0.00 | 0.00 | 0.00 | 78 | 1004.6 |
| 20260509171338 | 28 | 166 | 6.4 | 16.1 | 0.00 | 0.00 | 0.00 | 78 | 1004.6 |
| 20260509171236 | 28 | 127 | 6.4 | 16.1 | 0.00 | 0.00 | 0.00 | 78 | 1004.6 |
| 20260509171137 | 28 | 120 | 6.4 | 16.1 | 0.00 | 0.00 | 0.00 | 78 | 1004.6 |
| 20260509171038 | 28 | 144 | 4.8 | 16.1 | 0.00 | 0.00 | 0.00 | 78 | 1004.6 |
| 20260509170937 | 28 | 149 | 6.4 | 16.1 | 0.00 | 0.00 | 0.00 | 78 | 1004.6 |
| 20260509170837 | 28 | 103 | 9.7 | 16.1 | 0.00 | 0.00 | 0.00 | 79 | 1004.6 |
| 20260509170736 | 28 | 109 | 8.0 | 16.1 | 0.00 | 0.00 | 0.00 | 79 | 1004.5 |
| 20260509170639 | 28 | 118 | 6.4 | 14.5 | 0.00 | 0.00 | 0.00 | 78 | 1004.5 |
| 20260509170538 | 28 | 162 | 4.8 | 14.5 | 0.00 | 0.00 | 0.00 | 80 | 1004.5 |
| 20260509170438 | 28 | 166 | 6.4 | 14.5 | 0.00 | 0.00 | 0.00 | 80 | 1004.5 |
| 20260509170339 | 28 | 120 | 8.0 | 14.5 | 0.00 | 0.00 | 0.00 | 80 | 1004.4 |
| 20260509170237 | 27 | 123 | 6.4 | 14.5 | 0.00 | 0.00 | 0.00 | 81 | 1004.4 |
| 20260509170137 | 27 | 148 | 4.8 | 11.3 | 0.00 | 0.00 | 0.00 | 82 | 1004.4 |
| 20260509170038 | 27 | 113 | 6.4 | 11.3 | 0.00 | 0.00 | 0.00 | 82 | 1004.5 |
| 20260509165939 | 27 | 111 | 4.8 | 11.3 | 0.00 | 0.00 | 0.00 | 82 | 1004.4 |
| 20260509165839 | 27 | 134 | 3.2 | 9.7 | 0.00 | 0.00 | 0.00 | 82 | 1004.5 |
| 20260509165738 | 27 | 162 | 4.8 | 9.7 | 0.00 | 0.00 | 0.00 | 82 | 1004.5 |
| 20260509165638 | 27 | 183 | 6.4 | 9.7 | 0.00 | 0.00 | 0.00 | 82 | 1004.5 |
| 20260509165536 | 27 | 147 | 6.4 | 9.7 | 0.00 | 0.00 | 0.00 | 82 | 1004.6 |
| 20260509165437 | 27 | 133 | 6.4 | 8.0 | 0.00 | 0.00 | 0.00 | 82 | 1004.6 |
| 20260509165337 | 27 | 117 | 4.8 | 8.0 | 0.00 | 0.00 | 0.00 | 82 | 1004.7 |
| 20260509165236 | 27 | 51 | 1.6 | 4.8 | 0.00 | 0.00 | 0.00 | 82 | 1004.7 |
| 20260509165137 | 27 | 48 | 0.0 | 4.8 | 0.00 | 0.00 | 0.00 | 82 | 1004.8 |
| 20260509165038 | 27 | 45 | 0.0 | 4.8 | 0.00 | 0.00 | 0.00 | 82 | 1004.8 |
| 20260509164937 | 27 | 44 | 1.6 | 4.8 | 0.00 | 0.00 | 0.00 | 83 | 1004.8 |
| 20260509164837 | 26 | 44 | 3.2 | 4.8 | 0.00 | 0.00 | 0.00 | 83 | 1004.8 |
| 20260509164736 | 26 | 44 | 3.2 | 4.8 | 0.00 | 0.00 | 0.00 | 83 | 1004.7 |
| 20260509164637 | 26 | 44 | 1.6 | 4.8 | 0.00 | 0.00 | 0.00 | 83 | 1004.8 |
| 20260509164536 | 26 | 0 | 0.0 | 4.8 | 0.00 | 0.00 | 0.00 | 83 | 1004.8 |
| 20260509164436 | 26 | 0 | 1.6 | 4.8 | 0.00 | 0.00 | 0.00 | 84 | 1004.7 |
| 20260509164337 | 26 | 0 | 1.6 | 4.8 | 0.00 | 0.00 | 0.00 | 84 | 1004.7 |
| 20260509164235 | 26 | 358 | 0.0 | 4.8 | 0.00 | 0.00 | 0.00 | 84 | 1004.7 |
| 20260509164137 | 26 | 358 | 0.0 | 4.8 | 0.00 | 0.00 | 0.00 | 84 | 1004.7 |
| 20260509164037 | 26 | 358 | 0.0 | 4.8 | 0.00 | 0.00 | 0.00 | 84 | 1004.7 |
| 20260509163938 | 26 | 358 | 0.0 | 4.8 | 0.00 | 0.00 | 0.00 | 84 | 1004.6 |
| 20260509163835 | 26 | 358 | 0.0 | 4.8 | 0.00 | 0.00 | 0.00 | 84 | 1004.7 |
| 20260509163738 | 26 | 358 | 0.0 | 4.8 | 0.00 | 0.00 | 0.00 | 84 | 1004.7 |
| 20260509163637 | 26 | 358 | 0.0 | 4.8 | 0.00 | 0.00 | 0.00 | 85 | 1004.8 |
| 20260509163536 | 26 | 358 | 0.0 | 4.8 | 0.00 | 0.00 | 0.00 | 85 | 1004.8 |
| 20260509163437 | 26 | 358 | 1.6 | 4.8 | 0.00 | 0.00 | 0.00 | 85 | 1004.7 |
| 20260509163336 | 26 | 0 | 0.0 | 4.8 | 0.00 | 0.00 | 0.00 | 85 | 1004.8 |
| 20260509163235 | 26 | 0 | 1.6 | 4.8 | 0.00 | 0.00 | 0.00 | 85 | 1004.8 |
| 20260509163136 | 26 | 0 | 1.6 | 4.8 | 0.00 | 0.00 | 0.00 | 85 | 1004.8 |
| 20260509163036 | 26 | 0 | 1.6 | 6.4 | 0.00 | 0.00 | 0.00 | 85 | 1004.8 |
| 20260509162936 | 26 | 0 | 0.0 | 6.4 | 0.00 | 0.00 | 0.00 | 85 | 1004.8 |
| 20260509162835 | 26 | 0 | 1.6 | 6.4 | 0.00 | 0.00 | 0.00 | 85 | 1004.9 |
| 20260509162737 | 26 | 0 | 1.6 | 6.4 | 0.00 | 0.00 | 0.00 | 85 | 1004.8 |
| 20260509162636 | 26 | 0 | 1.6 | 6.4 | 0.00 | 0.00 | 0.00 | 85 | 1004.8 |
| 20260509162536 | 26 | 0 | 1.6 | 6.4 | 0.00 | 0.00 | 0.00 | 86 | 1004.9 |
| 20260509162436 | 26 | 0 | 1.6 | 6.4 | 0.00 | 0.00 | 0.00 | 86 | 1004.8 |
| 20260509162335 | 26 | 0 | 1.6 | 6.4 | 0.00 | 0.00 | 0.00 | 86 | 1004.8 |
| 20260509162235 | 26 | 0 | 3.2 | 6.4 | 0.00 | 0.00 | 0.00 | 86 | 1004.9 |
| 20260509162135 | 26 | 0 | 3.2 | 6.4 | 0.00 | 0.00 | 0.00 | 86 | 1004.8 |
| 20260509162035 | 25 | 0 | 0.0 | 6.4 | 0.00 | 0.00 | 0.00 | 85 | 1004.9 |
| 20260509161935 | 25 | 0 | 0.0 | 6.4 | 0.00 | 0.00 | 0.00 | 85 | 1004.9 |
| 20260509161836 | 25 | 0 | 0.0 | 6.4 | 0.00 | 0.00 | 0.00 | 85 | 1004.9 |
| 20260509161737 | 25 | 0 | 0.0 | 6.4 | 0.00 | 0.00 | 0.00 | 86 | 1004.9 |
| 20260509161636 | 25 | 0 | 0.0 | 6.4 | 0.00 | 0.00 | 0.00 | 86 | 1005.0 |
| 20260509161535 | 25 | 0 | 1.6 | 6.4 | 0.00 | 0.00 | 0.00 | 86 | 1005.0 |
| 20260509161436 | 25 | 0 | 3.2 | 6.4 | 0.00 | 0.00 | 0.00 | 86 | 1005.0 |
| 20260509161336 | 25 | 0 | 3.2 | 6.4 | 0.00 | 0.00 | 0.00 | 86 | 1005.0 |
| 20260509161235 | 25 | 0 | 0.0 | 3.2 | 0.00 | 0.00 | 0.00 | 85 | 1005.0 |
| 20260509161135 | 25 | 0 | 0.0 | 3.2 | 0.00 | 0.00 | 0.00 | 85 | 1005.1 |
| 20260509161035 | 25 | 0 | 0.0 | 6.4 | 0.00 | 0.00 | 0.00 | 85 | 1005.0 |
| 20260509160936 | 25 | 0 | 1.6 | 6.4 | 0.00 | 0.00 | 0.00 | 85 | 1005.1 |
| 20260509160835 | 25 | 0 | 1.6 | 6.4 | 0.00 | 0.00 | 0.00 | 85 | 1005.0 |
| 20260509160735 | 25 | 0 | 0.0 | 6.4 | 0.00 | 0.00 | 0.00 | 86 | 1005.1 |
| 20260509160636 | 25 | 0 | 0.0 | 6.4 | 0.00 | 0.00 | 0.00 | 86 | 1005.1 |
| 20260509160535 | 25 | 0 | 0.0 | 8.0 | 0.00 | 0.00 | 0.00 | 86 | 1005.1 |
| 20260509160435 | 25 | 0 | 0.0 | 8.0 | 0.00 | 0.00 | 0.00 | 86 | 1005.1 |
| 20260509160336 | 25 | 0 | 0.0 | 8.0 | 0.00 | 0.00 | 0.00 | 86 | 1005.0 |
| 20260509160235 | 25 | 0 | 3.2 | 8.0 | 0.00 | 0.00 | 0.00 | 86 | 1004.9 |
| 20260509160135 | 25 | 0 | 4.8 | 8.0 | 0.00 | 0.00 | 0.00 | 86 | 1004.9 |
| 20260509160037 | 25 | 0 | 4.8 | 8.0 | 0.00 | 0.00 | 0.00 | 86 | 1005.0 |
| 20260509155934 | 25 | 0 | 3.2 | 8.0 | 0.00 | 0.00 | 0.00 | 86 | 1005.0 |
| 20260509155834 | 25 | 14 | 3.2 | 8.0 | 0.00 | 0.00 | 0.00 | 86 | 1005.0 |
| 20260509155734 | 25 | 14 | 4.8 | 8.0 | 0.00 | 0.00 | 0.00 | 86 | 1005.0 |
| 20260509155636 | 25 | 14 | 3.2 | 8.0 | 0.00 | 0.00 | 0.00 | 86 | 1005.0 |
| 20260509155537 | 25 | 166 | 1.6 | 6.4 | 0.00 | 0.00 | 0.00 | 86 | 1005.0 |
| 20260509155435 | 25 | 169 | 1.6 | 3.2 | 0.00 | 0.00 | 0.00 | 86 | 1005.0 |
| 20260509155336 | 25 | 169 | 1.6 | 3.2 | 0.00 | 0.00 | 0.00 | 86 | 1005.0 |
| 20260509155236 | 25 | 171 | 0.0 | 0.0 | 0.00 | 0.00 | 0.00 | 86 | 1005.1 |
| 20260509155135 | 25 | 166 | 0.0 | 0.0 | 0.00 | 0.00 | 0.00 | 87 | 1004.9 |
| 20260509155036 | 25 | 168 | 0.0 | 0.0 | 0.00 | 0.00 | 0.00 | 86 | 1005.0 |
| 20260509154936 | 25 | 168 | 0.0 | 0.0 | 0.00 | 0.00 | 0.00 | 86 | 1005.0 |
| 20260509154837 | 25 | 168 | 0.0 | 0.0 | 0.00 | 0.00 | 0.00 | 87 | 1005.0 |
| 20260509154734 | 25 | 168 | 0.0 | 0.0 | 0.00 | 0.00 | 0.00 | 86 | 1005.0 |
| 20260509154634 | 25 | 168 | 0.0 | 0.0 | 0.00 | 0.00 | 0.00 | 86 | 1005.0 |
| 20260509154536 | 25 | 168 | 0.0 | 0.0 | 0.00 | 0.00 | 0.00 | 86 | 1005.0 |
| 20260509154434 | 25 | 168 | 0.0 | 0.0 | 0.00 | 0.00 | 0.00 | 86 | 1004.9 |
| 20260509154335 | 25 | 168 | 0.0 | 0.0 | 0.00 | 0.00 | 0.00 | 86 | 1005.0 |
| 20260509154235 | 25 | 168 | 0.0 | 0.0 | 0.00 | 0.00 | 0.00 | 86 | 1004.9 |
| 20260509154134 | 25 | 168 | 0.0 | 0.0 | 0.00 | 0.00 | 0.00 | 86 | 1005.0 |
| 20260509154035 | 25 | 168 | 0.0 | 0.0 | 0.00 | 0.00 | 0.00 | 86 | 1005.0 |
| 20260509153935 | 25 | 168 | 0.0 | 0.0 | 0.00 | 0.00 | 0.00 | 86 | 1005.0 |
| 20260509153836 | 25 | 168 | 0.0 | 0.0 | 0.00 | 0.00 | 0.00 | 86 | 1005.1 |
| 20260509153734 | 25 | 168 | 0.0 | 0.0 | 0.00 | 0.00 | 0.00 | 86 | 1005.0 |
| 20260509153635 | 25 | 168 | 0.0 | 0.0 | 0.00 | 0.00 | 0.00 | 86 | 1005.1 |
| 20260509153535 | 25 | 168 | 0.0 | 0.0 | 0.00 | 0.00 | 0.00 | 86 | 1005.0 |
| 20260509153434 | 25 | 168 | 0.0 | 0.0 | 0.00 | 0.00 | 0.00 | 86 | 1005.0 |
| 20260509153335 | 25 | 168 | 0.0 | 0.0 | 0.00 | 0.00 | 0.00 | 86 | 1005.0 |
| 20260509153234 | 25 | 168 | 0.0 | 0.0 | 0.00 | 0.00 | 0.00 | 86 | 1004.9 |
| 20260509153134 | 25 | 168 | 0.0 | 0.0 | 0.00 | 0.00 | 0.00 | 86 | 1004.9 |
| 20260509153034 | 25 | 168 | 0.0 | 0.0 | 0.00 | 0.00 | 0.00 | 86 | 1004.9 |
| 20260509152937 | 25 | 168 | 0.0 | 0.0 | 0.00 | 0.00 | 0.00 | 86 | 1004.9 |
| 20260509152836 | 25 | 169 | 0.0 | 0.0 | 0.00 | 0.00 | 0.00 | 86 | 1004.9 |
| 20260509152734 | 25 | 173 | 0.0 | 0.0 | 0.00 | 0.00 | 0.00 | 87 | 1004.9 |
| 20260509152634 | 25 | 175 | 0.0 | 0.0 | 0.00 | 0.00 | 0.00 | 87 | 1004.9 |
| 20260509152534 | 25 | 175 | 0.0 | 0.0 | 0.00 | 0.00 | 0.00 | 87 | 1004.8 |
| 20260509152436 | 25 | 175 | 0.0 | 0.0 | 0.00 | 0.00 | 0.00 | 87 | 1004.8 |
| 20260509152334 | 25 | 175 | 0.0 | 0.0 | 0.00 | 0.00 | 0.00 | 87 | 1004.7 |
| 20260509152234 | 25 | 175 | 0.0 | 0.0 | 0.00 | 0.00 | 0.00 | 87 | 1004.8 |
| 20260509152134 | 25 | 175 | 0.0 | 0.0 | 0.00 | 0.00 | 0.00 | 87 | 1004.8 |
| 20260509152034 | 25 | 175 | 0.0 | 0.0 | 0.00 | 0.00 | 0.00 | 87 | 1004.7 |
| 20260509151936 | 25 | 175 | 0.0 | 0.0 | 0.00 | 0.00 | 0.00 | 87 | 1004.7 |
| 20260509151834 | 25 | 175 | 0.0 | 0.0 | 0.00 | 0.00 | 0.00 | 87 | 1004.8 |
| 20260509151734 | 25 | 175 | 0.0 | 0.0 | 0.00 | 0.00 | 0.00 | 87 | 1004.9 |
| 20260509151635 | 25 | 175 | 0.0 | 0.0 | 0.00 | 0.00 | 0.00 | 87 | 1004.9 |
| 20260509151534 | 25 | 175 | 0.0 | 0.0 | 0.00 | 0.00 | 0.00 | 87 | 1004.8 |
| 20260509151436 | 25 | 175 | 0.0 | 0.0 | 0.00 | 0.00 | 0.00 | 87 | 1004.9 |
| 20260509151334 | 25 | 175 | 0.0 | 0.0 | 0.00 | 0.00 | 0.00 | 88 | 1004.9 |
| 20260509151235 | 25 | 175 | 0.0 | 0.0 | 0.00 | 0.00 | 0.00 | 88 | 1004.9 |
| 20260509151133 | 25 | 175 | 0.0 | 0.0 | 0.00 | 0.00 | 0.00 | 88 | 1005.0 |
| 20260509151034 | 25 | 175 | 0.0 | 0.0 | 0.00 | 0.00 | 0.00 | 87 | 1004.9 |
| 20260509150934 | 25 | 175 | 0.0 | 0.0 | 0.00 | 0.00 | 0.00 | 88 | 1004.9 |
| 20260509150833 | 25 | 175 | 0.0 | 0.0 | 0.00 | 0.00 | 0.00 | 88 | 1004.9 |
| 20260509150733 | 25 | 175 | 0.0 | 0.0 | 0.00 | 0.00 | 0.00 | 87 | 1004.9 |
| 20260509150634 | 25 | 175 | 0.0 | 0.0 | 0.00 | 0.00 | 0.00 | 88 | 1004.9 |
| 20260509150536 | 25 | 175 | 0.0 | 0.0 | 0.00 | 0.00 | 0.00 | 88 | 1004.9 |
| 20260509150436 | 25 | 175 | 0.0 | 0.0 | 0.00 | 0.00 | 0.00 | 87 | 1004.8 |
| 20260509150335 | 25 | 175 | 0.0 | 0.0 | 0.00 | 0.00 | 0.00 | 88 | 1004.8 |
| 20260509150234 | 25 | 176 | 0.0 | 0.0 | 0.00 | 0.00 | 0.00 | 88 | 1004.8 |
| 20260509150132 | 25 | 176 | 0.0 | 0.0 | 0.00 | 0.00 | 0.00 | 88 | 1004.7 |
| 20260509150034 | 25 | 176 | 0.0 | 0.0 | 0.00 | 0.00 | 0.00 | 88 | 1004.7 |
| 20260509145935 | 25 | 176 | 0.0 | 0.0 | 0.00 | 0.00 | 0.00 | 88 | 1004.7 |
| 20260509145833 | 25 | 176 | 0.0 | 0.0 | 0.00 | 0.00 | 0.00 | 88 | 1004.7 |
| 20260509145733 | 25 | 176 | 0.0 | 0.0 | 0.00 | 0.00 | 0.00 | 89 | 1004.7 |
| 20260509145633 | 25 | 176 | 0.0 | 0.0 | 0.00 | 0.00 | 0.00 | 89 | 1004.6 |
| 20260509145533 | 25 | 176 | 0.0 | 0.0 | 0.00 | 0.00 | 0.00 | 89 | 1004.6 |
| 20260509145435 | 25 | 176 | 0.0 | 0.0 | 0.00 | 0.00 | 0.00 | 89 | 1004.6 |
| 20260509145335 | 25 | 176 | 0.0 | 0.0 | 0.00 | 0.00 | 0.00 | 89 | 1004.6 |
| 20260509145234 | 25 | 176 | 0.0 | 0.0 | 0.00 | 0.00 | 0.00 | 89 | 1004.5 |
| 20260509145133 | 25 | 176 | 0.0 | 0.0 | 0.00 | 0.00 | 0.00 | 89 | 1004.5 |
| 20260509145034 | 25 | 176 | 0.0 | 0.0 | 0.00 | 0.00 | 0.00 | 89 | 1004.5 |
| 20260509144933 | 25 | 176 | 0.0 | 0.0 | 0.00 | 0.00 | 0.00 | 89 | 1004.5 |
| 20260509144833 | 25 | 176 | 0.0 | 0.0 | 0.00 | 0.00 | 0.00 | 89 | 1004.4 |
| 20260509144734 | 25 | 176 | 0.0 | 0.0 | 0.00 | 0.00 | 0.00 | 89 | 1004.5 |
| 20260509144634 | 25 | 176 | 0.0 | 0.0 | 0.00 | 0.00 | 0.00 | 89 | 1004.4 |
| 20260509144533 | 25 | 176 | 0.0 | 0.0 | 0.00 | 0.00 | 0.00 | 89 | 1004.4 |
| 20260509144433 | 25 | 176 | 0.0 | 0.0 | 0.00 | 0.00 | 0.00 | 89 | 1004.3 |
| 20260509144333 | 25 | 176 | 0.0 | 0.0 | 0.00 | 0.00 | 0.00 | 89 | 1004.3 |
| 20260509144233 | 25 | 176 | 0.0 | 0.0 | 0.00 | 0.00 | 0.00 | 90 | 1004.3 |
| 20260509144133 | 25 | 176 | 0.0 | 0.0 | 0.00 | 0.00 | 0.00 | 90 | 1004.3 |
| 20260509144033 | 25 | 176 | 0.0 | 0.0 | 0.00 | 0.00 | 0.00 | 90 | 1004.3 |
| 20260509143933 | 25 | 176 | 0.0 | 0.0 | 0.00 | 0.00 | 0.00 | 90 | 1004.2 |
| 20260509143834 | 24 | 176 | 0.0 | 0.0 | 0.00 | 0.00 | 0.00 | 90 | 1004.1 |
| 20260509143734 | 24 | 176 | 0.0 | 0.0 | 0.00 | 0.00 | 0.00 | 90 | 1004.1 |
| 20260509143633 | 24 | 176 | 0.0 | 0.0 | 0.00 | 0.00 | 0.00 | 90 | 1004.2 |
| 20260509143533 | 24 | 176 | 0.0 | 0.0 | 0.00 | 0.00 | 0.00 | 90 | 1004.2 |
| 20260509143432 | 24 | 176 | 0.0 | 0.0 | 0.00 | 0.00 | 0.00 | 90 | 1004.3 |
| 20260509143333 | 24 | 176 | 0.0 | 0.0 | 0.00 | 0.00 | 0.00 | 90 | 1004.4 |
| 20260509143233 | 24 | 176 | 0.0 | 0.0 | 0.00 | 0.00 | 0.00 | 90 | 1004.4 |
| 20260509143133 | 24 | 176 | 0.0 | 0.0 | 0.00 | 0.00 | 0.00 | 90 | 1004.4 |
| 20260509143033 | 24 | 176 | 0.0 | 0.0 | 0.00 | 0.00 | 0.00 | 91 | 1004.4 |
| 20260509142935 | 24 | 176 | 0.0 | 0.0 | 0.00 | 0.00 | 0.00 | 91 | 1004.4 |
| 20260509142833 | 24 | 176 | 0.0 | 0.0 | 0.00 | 0.00 | 0.00 | 90 | 1004.4 |
| 20260509142736 | 24 | 176 | 0.0 | 0.0 | 0.00 | 0.00 | 0.00 | 91 | 1004.3 |
| 20260509142634 | 24 | 176 | 0.0 | 0.0 | 0.00 | 0.00 | 0.00 | 91 | 1004.3 |
| 20260509142532 | 24 | 176 | 0.0 | 0.0 | 0.00 | 0.00 | 0.00 | 91 | 1004.2 |
| 20260509142435 | 24 | 176 | 0.0 | 0.0 | 0.00 | 0.00 | 0.00 | 91 | 1004.1 |
| 20260509142332 | 24 | 176 | 0.0 | 0.0 | 0.00 | 0.00 | 0.00 | 91 | 1004.2 |
| 20260509142233 | 24 | 176 | 0.0 | 0.0 | 0.00 | 0.00 | 0.00 | 91 | 1004.1 |
| 20260509142133 | 24 | 176 | 0.0 | 0.0 | 0.00 | 0.00 | 0.00 | 91 | 1004.1 |
| 20260509142033 | 24 | 176 | 0.0 | 0.0 | 0.00 | 0.00 | 0.00 | 91 | 1004.1 |
| 20260509141932 | 24 | 176 | 0.0 | 0.0 | 0.00 | 0.00 | 0.00 | 91 | 1004.1 |
| 20260509141832 | 24 | 176 | 0.0 | 0.0 | 0.00 | 0.00 | 0.00 | 91 | 1004.1 |
| 20260509141733 | 24 | 176 | 0.0 | 0.0 | 0.00 | 0.00 | 0.00 | 91 | 1004.1 |
| 20260509141632 | 24 | 176 | 0.0 | 0.0 | 0.00 | 0.00 | 0.00 | 92 | 1004.1 |
| 20260509141533 | 24 | 176 | 0.0 | 0.0 | 0.00 | 0.00 | 0.00 | 92 | 1004.1 |
| 20260509141434 | 24 | 176 | 0.0 | 1.6 | 0.00 | 0.00 | 0.00 | 92 | 1004.2 |
| 20260509141332 | 24 | 176 | 0.0 | 1.6 | 0.00 | 0.00 | 0.00 | 92 | 1004.1 |
| 20260509141233 | 24 | 176 | 0.0 | 1.6 | 0.00 | 0.00 | 0.00 | 92 | 1004.1 |
| 20260509141132 | 24 | 176 | 0.0 | 1.6 | 0.00 | 0.00 | 0.00 | 92 | 1004.0 |
| 20260509141032 | 24 | 176 | 0.0 | 1.6 | 0.00 | 0.00 | 0.00 | 92 | 1004.0 |
| 20260509140933 | 24 | 176 | 0.0 | 1.6 | 0.00 | 0.00 | 0.00 | 92 | 1004.0 |
| 20260509140833 | 24 | 176 | 0.0 | 1.6 | 0.00 | 0.00 | 0.00 | 92 | 1004.0 |
| 20260509140732 | 24 | 176 | 0.0 | 1.6 | 0.00 | 0.00 | 0.00 | 92 | 1004.0 |
| 20260509140632 | 24 | 176 | 0.0 | 4.8 | 0.00 | 0.00 | 0.00 | 92 | 1004.1 |
| 20260509140533 | 24 | 176 | 0.0 | 4.8 | 0.00 | 0.00 | 0.00 | 92 | 1004.1 |
| 20260509140433 | 24 | 176 | 0.0 | 4.8 | 0.00 | 0.00 | 0.00 | 92 | 1004.2 |
| 20260509140332 | 24 | 176 | 0.0 | 4.8 | 0.00 | 0.00 | 0.00 | 92 | 1004.1 |
| 20260509140232 | 24 | 176 | 0.0 | 4.8 | 0.00 | 0.00 | 0.00 | 92 | 1004.0 |
| 20260509140133 | 24 | 176 | 0.0 | 4.8 | 0.00 | 0.00 | 0.00 | 92 | 1004.0 |
| 20260509140033 | 24 | 176 | 0.0 | 4.8 | 0.00 | 0.00 | 0.00 | 92 | 1003.9 |
| 20260509135934 | 24 | 176 | 0.0 | 4.8 | 0.00 | 0.00 | 0.00 | 92 | 1003.9 |
| 20260509135832 | 24 | 176 | 1.6 | 4.8 | 0.00 | 0.00 | 0.00 | 92 | 1003.9 |
| 20260509135732 | 24 | 176 | 1.6 | 4.8 | 0.00 | 0.00 | 0.00 | 93 | 1003.9 |
| 20260509135633 | 24 | 182 | 0.0 | 1.6 | 0.00 | 0.00 | 0.00 | 93 | 1003.8 |
| 20260509135532 | 24 | 183 | 0.0 | 1.6 | 0.00 | 0.00 | 0.00 | 93 | 1003.9 |
| 20260509135432 | 24 | 161 | 0.0 | 0.0 | 0.00 | 0.00 | 0.00 | 93 | 1004.0 |
| 20260509135333 | 24 | 161 | 0.0 | 0.0 | 0.00 | 0.00 | 0.00 | 93 | 1004.0 |
| 20260509135233 | 23 | 161 | 0.0 | 0.0 | 0.00 | 0.00 | 0.00 | 93 | 1004.1 |
| 20260509135133 | 23 | 161 | 0.0 | 0.0 | 0.00 | 0.00 | 0.00 | 93 | 1004.1 |
| 20260509135032 | 23 | 161 | 0.0 | 0.0 | 0.00 | 0.00 | 0.00 | 93 | 1004.0 |
| 20260509134932 | 23 | 161 | 0.0 | 1.6 | 0.00 | 0.00 | 0.00 | 93 | 1004.1 |
| 20260509134832 | 24 | 161 | 0.0 | 3.2 | 0.00 | 0.00 | 0.00 | 93 | 1004.1 |
| 20260509134734 | 23 | 161 | 0.0 | 3.2 | 0.00 | 0.00 | 0.00 | 93 | 1004.1 |
| 20260509134633 | 23 | 161 | 0.0 | 4.8 | 0.00 | 0.00 | 0.00 | 93 | 1004.1 |
| 20260509134532 | 23 | 161 | 0.0 | 4.8 | 0.00 | 0.00 | 0.00 | 93 | 1004.2 |
| 20260509134433 | 23 | 161 | 0.0 | 4.8 | 0.00 | 0.00 | 0.00 | 93 | 1004.2 |
| 20260509134332 | 24 | 161 | 0.0 | 4.8 | 0.00 | 0.00 | 0.00 | 93 | 1004.2 |
| 20260509134232 | 23 | 161 | 0.0 | 4.8 | 0.00 | 0.00 | 0.00 | 93 | 1004.3 |
| 20260509134132 | 23 | 161 | 0.0 | 4.8 | 0.00 | 0.00 | 0.00 | 93 | 1004.4 |
| 20260509134035 | 23 | 161 | 1.6 | 4.8 | 0.00 | 0.00 | 0.00 | 93 | 1004.4 |
| 20260509133932 | 24 | 161 | 1.6 | 4.8 | 0.00 | 0.00 | 0.00 | 93 | 1004.4 |
| 20260509133832 | 24 | 162 | 1.6 | 4.8 | 0.00 | 0.00 | 0.00 | 93 | 1004.4 |
| 20260509133732 | 24 | 162 | 1.6 | 4.8 | 0.00 | 0.00 | 0.00 | 93 | 1004.4 |
| 20260509133632 | 24 | 169 | 0.0 | 3.2 | 0.00 | 0.00 | 0.00 | 93 | 1004.4 |
| 20260509133532 | 24 | 171 | 0.0 | 3.2 | 0.00 | 0.00 | 0.00 | 93 | 1004.5 |
| 20260509133432 | 23 | 171 | 0.0 | 3.2 | 0.00 | 0.00 | 0.00 | 93 | 1004.5 |
| 20260509133331 | 24 | 171 | 0.0 | 3.2 | 0.00 | 0.00 | 0.00 | 93 | 1004.6 |
| 20260509133232 | 23 | 171 | 0.0 | 3.2 | 0.00 | 0.00 | 0.00 | 93 | 1004.6 |
| 20260509133132 | 24 | 171 | 1.6 | 3.2 | 0.00 | 0.00 | 0.00 | 93 | 1004.6 |
| 20260509133031 | 24 | 171 | 1.6 | 4.8 | 0.00 | 0.00 | 0.00 | 93 | 1004.5 |
| 20260509132931 | 24 | 171 | 1.6 | 4.8 | 0.00 | 0.00 | 0.00 | 93 | 1004.5 |
| 20260509132832 | 24 | 171 | 1.6 | 4.8 | 0.00 | 0.00 | 0.00 | 93 | 1004.5 |
| 20260509132733 | 23 | 171 | 3.2 | 4.8 | 0.00 | 0.00 | 0.00 | 93 | 1004.5 |
| 20260509132632 | 23 | 171 | 1.6 | 4.8 | 0.00 | 0.00 | 0.00 | 94 | 1004.6 |
| 20260509132532 | 23 | 172 | 1.6 | 4.8 | 0.00 | 0.00 | 0.00 | 94 | 1004.7 |
| 20260509132431 | 23 | 172 | 1.6 | 4.8 | 0.00 | 0.00 | 0.00 | 94 | 1004.8 |
| 20260509132333 | 23 | 172 | 1.6 | 4.8 | 0.00 | 0.00 | 0.00 | 94 | 1004.8 |
| 20260509132231 | 23 | 172 | 1.6 | 4.8 | 0.00 | 0.00 | 0.00 | 94 | 1004.8 |
| 20260509132131 | 23 | 172 | 1.6 | 4.8 | 0.00 | 0.00 | 0.00 | 94 | 1004.8 |
| 20260509132032 | 23 | 172 | 1.6 | 4.8 | 0.00 | 0.00 | 0.00 | 94 | 1004.8 |
| 20260509131933 | 23 | 172 | 1.6 | 4.8 | 0.00 | 0.00 | 0.00 | 94 | 1004.8 |
| 20260509131831 | 23 | 172 | 1.6 | 4.8 | 0.00 | 0.00 | 0.00 | 94 | 1004.8 |
| 20260509131733 | 23 | 172 | 3.2 | 4.8 | 0.00 | 0.00 | 0.00 | 94 | 1004.7 |
| 20260509131631 | 23 | 176 | 1.6 | 4.8 | 0.00 | 0.00 | 0.00 | 94 | 1004.8 |
| 20260509131531 | 23 | 217 | 0.0 | 3.2 | 0.00 | 0.00 | 0.00 | 94 | 1004.9 |
| 20260509131432 | 23 | 217 | 1.6 | 3.2 | 0.00 | 0.00 | 0.00 | 94 | 1004.9 |
| 20260509131331 | 23 | 217 | 1.6 | 3.2 | 0.00 | 0.00 | 0.00 | 94 | 1005.0 |
| 20260509131231 | 23 | 217 | 0.0 | 4.8 | 0.00 | 0.00 | 0.00 | 94 | 1005.0 |
| 20260509131132 | 23 | 259 | 0.0 | 4.8 | 0.00 | 0.00 | 0.00 | 94 | 1004.9 |
| 20260509131031 | 23 | 259 | 0.0 | 4.8 | 0.00 | 0.00 | 0.00 | 94 | 1004.9 |
| 20260509130932 | 23 | 259 | 0.0 | 4.8 | 0.00 | 0.00 | 0.00 | 94 | 1004.9 |
| 20260509130832 | 23 | 259 | 0.0 | 4.8 | 0.00 | 0.00 | 0.00 | 94 | 1004.9 |
| 20260509130732 | 23 | 259 | 1.6 | 4.8 | 0.00 | 0.00 | 0.00 | 94 | 1004.8 |
| 20260509130629 | 23 | 259 | 1.6 | 4.8 | 0.00 | 0.00 | 0.00 | 94 | 1004.8 |
| 20260509130526 | 23 | 259 | 1.6 | 4.8 | 0.00 | 0.00 | 0.00 | 94 | 1004.8 |
| 20260509130425 | 23 | 261 | 3.2 | 4.8 | 0.00 | 0.00 | 0.00 | 94 | 1004.8 |
| 20260509130324 | 23 | 285 | 3.2 | 4.8 | 0.00 | 0.00 | 0.00 | 94 | 1004.8 |
| 20260509130214 | 23 | 295 | 1.6 | 4.8 | 0.00 | 0.00 | 0.00 | 94 | 1004.8 |
| 20260509130106 | 23 | 295 | 0.0 | 1.6 | 0.00 | 0.00 | 0.00 | 94 | 1005.0 |
| 20260509130003 | 23 | 299 | 0.0 | 0.0 | 0.00 | 0.00 | 0.00 | 94 | 1005.0 |
| 20260509125902 | 23 | 299 | 0.0 | 0.0 | 0.00 | 0.00 | 0.00 | 94 | 1005.1 |
| 20260509125803 | 23 | 299 | 0.0 | 0.0 | 0.00 | 0.00 | 0.00 | 94 | 1005.1 |
| 20260509125704 | 23 | 299 | 0.0 | 0.0 | 0.00 | 0.00 | 0.00 | 94 | 1005.1 |
| 20260509125603 | 23 | 299 | 0.0 | 0.0 | 0.00 | 0.00 | 0.00 | 94 | 1005.1 |
| 20260509125503 | 23 | 300 | 0.0 | 0.0 | 0.00 | 0.00 | 0.00 | 94 | 1005.0 |
| 20260509125402 | 23 | 300 | 0.0 | 0.0 | 0.00 | 0.00 | 0.00 | 94 | 1005.1 |
| 20260509125307 | 23 | 300 | 0.0 | 0.0 | 0.00 | 0.00 | 0.00 | 94 | 1005.0 |
| 20260509125202 | 23 | 300 | 0.0 | 0.0 | 0.00 | 0.00 | 0.00 | 94 | 1004.9 |
| 20260509125104 | 23 | 300 | 0.0 | 0.0 | 0.00 | 0.00 | 0.00 | 94 | 1005.0 |
| 20260509125004 | 23 | 300 | 0.0 | 0.0 | 0.00 | 0.00 | 0.00 | 94 | 1005.0 |
| 20260509124902 | 23 | 300 | 0.0 | 1.6 | 0.00 | 0.00 | 0.00 | 94 | 1004.9 |
| 20260509124802 | 23 | 300 | 0.0 | 1.6 | 0.00 | 0.00 | 0.00 | 94 | 1004.9 |
| 20260509124702 | 23 | 300 | 0.0 | 1.6 | 0.00 | 0.00 | 0.00 | 94 | 1004.7 |
| 20260509124604 | 23 | 300 | 0.0 | 1.6 | 0.00 | 0.00 | 0.00 | 94 | 1004.8 |
| 20260509124502 | 23 | 300 | 0.0 | 1.6 | 0.00 | 0.00 | 0.00 | 94 | 1004.7 |
| 20260509124402 | 23 | 300 | 0.0 | 1.6 | 0.00 | 0.00 | 0.00 | 94 | 1004.6 |
| 20260509124254 | 23 | 300 | 0.0 | 1.6 | 0.00 | 0.00 | 0.00 | 94 | 1004.6 |
| 20260509124141 | 23 | 300 | 0.0 | 1.6 | 0.00 | 0.00 | 0.00 | 94 | 1004.6 |
| 20260509124035 | 23 | 300 | 0.0 | 1.6 | 0.00 | 0.00 | 0.00 | 94 | 1004.6 |
| 20260509123933 | 23 | 300 | 0.0 | 1.6 | 0.00 | 0.00 | 0.00 | 94 | 1004.7 |
| 20260509123831 | 23 | 300 | 0.0 | 1.6 | 0.00 | 0.00 | 0.00 | 94 | 1004.7 |
| 20260509123732 | 23 | 300 | 0.0 | 1.6 | 0.00 | 0.00 | 0.00 | 94 | 1004.7 |
| 20260509123633 | 23 | 300 | 0.0 | 1.6 | 0.00 | 0.00 | 0.00 | 94 | 1004.8 |
| 20260509123530 | 23 | 300 | 0.0 | 1.6 | 0.00 | 0.00 | 0.00 | 94 | 1004.7 |
| 20260509123432 | 23 | 300 | 0.0 | 1.6 | 0.00 | 0.00 | 0.00 | 94 | 1004.7 |
| 20260509123332 | 23 | 300 | 0.0 | 1.6 | 0.00 | 0.00 | 0.00 | 94 | 1004.7 |
| 20260509123231 | 23 | 300 | 0.0 | 1.6 | 0.00 | 0.00 | 0.00 | 94 | 1004.7 |
| 20260509123131 | 23 | 300 | 0.0 | 1.6 | 0.00 | 0.00 | 0.00 | 94 | 1004.7 |
| 20260509123030 | 23 | 300 | 1.6 | 1.6 | 0.00 | 0.00 | 0.00 | 94 | 1004.7 |
| 20260509122930 | 23 | 302 | 1.6 | 1.6 | 0.00 | 0.00 | 0.00 | 94 | 1004.7 |
| 20260509122830 | 23 | 303 | 0.0 | 1.6 | 0.00 | 0.00 | 0.00 | 94 | 1004.7 |
| 20260509122731 | 23 | 306 | 1.6 | 1.6 | 0.00 | 0.00 | 0.00 | 94 | 1004.7 |
| 20260509122630 | 23 | 306 | 1.6 | 1.6 | 0.00 | 0.00 | 0.00 | 94 | 1004.6 |
| 20260509122530 | 23 | 309 | 0.0 | 3.2 | 0.00 | 0.00 | 0.00 | 94 | 1004.6 |
| 20260509122431 | 23 | 309 | 0.0 | 3.2 | 0.00 | 0.00 | 0.00 | 94 | 1004.5 |
| 20260509122330 | 23 | 309 | 0.0 | 3.2 | 0.00 | 0.00 | 0.00 | 94 | 1004.6 |
| 20260509122231 | 23 | 309 | 0.0 | 3.2 | 0.00 | 0.00 | 0.00 | 94 | 1004.6 |
| 20260509122131 | 23 | 309 | 0.0 | 3.2 | 0.00 | 0.00 | 0.00 | 94 | 1004.5 |
| 20260509122032 | 23 | 309 | 0.0 | 3.2 | 0.00 | 0.00 | 0.00 | 94 | 1004.6 |
| 20260509121930 | 23 | 309 | 0.0 | 3.2 | 0.00 | 0.00 | 0.00 | 94 | 1004.7 |
| 20260509121830 | 23 | 309 | 0.0 | 3.2 | 0.00 | 0.00 | 0.00 | 94 | 1004.7 |
| 20260509121731 | 23 | 310 | 1.6 | 3.2 | 0.00 | 0.00 | 0.00 | 94 | 1004.7 |
| 20260509121630 | 23 | 334 | 0.0 | 3.2 | 0.00 | 0.00 | 0.00 | 94 | 1004.7 |
| 20260509121532 | 23 | 336 | 0.0 | 1.6 | 0.00 | 0.00 | 0.00 | 94 | 1004.7 |
| 20260509121432 | 23 | 336 | 0.0 | 1.6 | 0.00 | 0.00 | 0.00 | 94 | 1004.7 |
| 20260509121331 | 23 | 338 | 1.6 | 1.6 | 0.00 | 0.00 | 0.00 | 94 | 1004.7 |
| 20260509121231 | 23 | 338 | 0.0 | 1.6 | 0.00 | 0.00 | 0.00 | 94 | 1004.6 |
| 20260509121130 | 23 | 338 | 0.0 | 1.6 | 0.00 | 0.00 | 0.00 | 94 | 1004.7 |
| 20260509121029 | 23 | 340 | 0.0 | 0.0 | 0.00 | 0.00 | 0.00 | 94 | 1004.7 |
| 20260509120929 | 23 | 340 | 0.0 | 0.0 | 0.00 | 0.00 | 0.00 | 94 | 1004.7 |
| 20260509120832 | 23 | 340 | 0.0 | 0.0 | 0.00 | 0.00 | 0.00 | 94 | 1004.7 |
| 20260509120732 | 23 | 340 | 0.0 | 0.0 | 0.00 | 0.00 | 0.00 | 94 | 1004.7 |
| 20260509120631 | 23 | 340 | 0.0 | 0.0 | 0.00 | 0.00 | 0.00 | 94 | 1004.7 |
| 20260509120532 | 23 | 340 | 0.0 | 0.0 | 0.00 | 0.00 | 0.00 | 94 | 1004.7 |
| 20260509120431 | 23 | 340 | 0.0 | 0.0 | 0.00 | 0.00 | 0.00 | 94 | 1004.7 |
| 20260509120329 | 23 | 340 | 0.0 | 0.0 | 0.00 | 0.00 | 0.00 | 94 | 1004.7 |
| 20260509120230 | 23 | 340 | 0.0 | 0.0 | 0.00 | 0.00 | 0.00 | 94 | 1004.7 |
| 20260509120131 | 23 | 340 | 0.0 | 0.0 | 0.00 | 0.00 | 0.00 | 94 | 1004.5 |
| 20260509120031 | 23 | 340 | 0.0 | 0.0 | 0.00 | 0.00 | 0.00 | 94 | 1004.5 |
| 20260509115931 | 23 | 340 | 0.0 | 0.0 | 0.00 | 0.00 | 0.00 | 94 | 1004.5 |
| 20260509115831 | 23 | 340 | 0.0 | 0.0 | 0.00 | 0.00 | 0.00 | 94 | 1004.4 |
| 20260509115730 | 23 | 340 | 0.0 | 0.0 | 0.00 | 0.00 | 0.00 | 94 | 1004.4 |
| 20260509115630 | 23 | 340 | 0.0 | 0.0 | 0.00 | 0.00 | 0.00 | 94 | 1004.4 |
| 20260509115530 | 23 | 340 | 0.0 | 0.0 | 0.00 | 0.00 | 0.00 | 94 | 1004.4 |
| 20260509115430 | 23 | 340 | 0.0 | 0.0 | 0.00 | 0.00 | 0.00 | 94 | 1004.5 |
| 20260509115330 | 23 | 340 | 0.0 | 0.0 | 0.00 | 0.00 | 0.00 | 94 | 1004.5 |
| 20260509115230 | 23 | 340 | 0.0 | 0.0 | 0.00 | 0.00 | 0.00 | 94 | 1004.5 |
| 20260509115130 | 23 | 340 | 0.0 | 0.0 | 0.00 | 0.00 | 0.00 | 94 | 1004.5 |
| 20260509115029 | 23 | 340 | 0.0 | 0.0 | 0.00 | 0.00 | 0.00 | 94 | 1004.6 |
| 20260509114930 | 23 | 340 | 0.0 | 0.0 | 0.00 | 0.00 | 0.00 | 94 | 1004.5 |
| 20260509114829 | 23 | 340 | 0.0 | 0.0 | 0.00 | 0.00 | 0.00 | 94 | 1004.5 |
| 20260509114731 | 23 | 340 | 0.0 | 1.6 | 0.00 | 0.00 | 0.00 | 94 | 1004.5 |
| 20260509114630 | 23 | 340 | 0.0 | 3.2 | 0.00 | 0.00 | 0.00 | 94 | 1004.4 |
| 20260509114529 | 23 | 340 | 0.0 | 3.2 | 0.00 | 0.00 | 0.00 | 94 | 1004.4 |
| 20260509114430 | 23 | 340 | 0.0 | 4.8 | 0.00 | 0.00 | 0.00 | 94 | 1004.3 |
| 20260509114331 | 23 | 340 | 0.0 | 4.8 | 0.00 | 0.00 | 0.00 | 94 | 1004.4 |
| 20260509114230 | 23 | 340 | 0.0 | 4.8 | 0.00 | 0.00 | 0.00 | 94 | 1004.4 |
| 20260509114129 | 23 | 340 | 0.0 | 4.8 | 0.00 | 0.00 | 0.00 | 94 | 1004.4 |
| 20260509114030 | 23 | 340 | 0.0 | 4.8 | 0.00 | 0.00 | 0.00 | 94 | 1004.4 |
| 20260509113930 | 23 | 340 | 0.0 | 4.8 | 0.00 | 0.00 | 0.00 | 94 | 1004.4 |
| 20260509113830 | 23 | 340 | 1.6 | 4.8 | 0.00 | 0.00 | 0.00 | 94 | 1004.5 |
| 20260509113730 | 23 | 340 | 1.6 | 4.8 | 0.00 | 0.00 | 0.00 | 94 | 1004.5 |
| 20260509113629 | 23 | 340 | 3.2 | 4.8 | 0.00 | 0.00 | 0.00 | 94 | 1004.5 |
| 20260509113530 | 23 | 340 | 3.2 | 4.8 | 0.00 | 0.00 | 0.00 | 94 | 1004.6 |
| 20260509113430 | 23 | 340 | 3.2 | 4.8 | 0.00 | 0.00 | 0.00 | 94 | 1004.6 |
| 20260509113329 | 23 | 340 | 3.2 | 4.8 | 0.00 | 0.00 | 0.00 | 94 | 1004.7 |
| 20260509113230 | 23 | 340 | 3.2 | 4.8 | 0.00 | 0.00 | 0.00 | 94 | 1004.7 |
| 20260509113128 | 23 | 340 | 1.6 | 4.8 | 0.00 | 0.00 | 0.00 | 94 | 1004.8 |
| 20260509113031 | 23 | 340 | 0.0 | 4.8 | 0.00 | 0.00 | 0.00 | 94 | 1004.8 |
| 20260509112931 | 23 | 340 | 3.2 | 4.8 | 0.00 | 0.00 | 0.00 | 94 | 1004.7 |
| 20260509112831 | 23 | 340 | 3.2 | 4.8 | 0.00 | 0.00 | 0.00 | 94 | 1004.7 |
| 20260509112730 | 23 | 340 | 3.2 | 4.8 | 0.00 | 0.00 | 0.00 | 94 | 1004.7 |
| 20260509112628 | 23 | 340 | 3.2 | 4.8 | 0.00 | 0.00 | 0.00 | 94 | 1004.7 |
| 20260509112530 | 23 | 340 | 1.6 | 4.8 | 0.00 | 0.00 | 0.00 | 94 | 1004.6 |
| 20260509112428 | 23 | 340 | 0.0 | 3.2 | 0.00 | 0.00 | 0.00 | 94 | 1004.6 |
| 20260509112331 | 23 | 340 | 0.0 | 4.8 | 0.00 | 0.00 | 0.00 | 94 | 1004.5 |
| 20260509112230 | 23 | 340 | 0.0 | 4.8 | 0.00 | 0.00 | 0.00 | 94 | 1004.5 |
| 20260509112129 | 23 | 340 | 0.0 | 4.8 | 0.00 | 0.00 | 0.00 | 94 | 1004.5 |
| 20260509112029 | 23 | 340 | 0.0 | 8.0 | 0.00 | 0.00 | 0.00 | 94 | 1004.6 |
| 20260509111931 | 23 | 340 | 0.0 | 8.0 | 0.00 | 0.00 | 0.00 | 94 | 1004.7 |
| 20260509111830 | 23 | 340 | 0.0 | 8.0 | 0.00 | 0.00 | 0.00 | 94 | 1004.7 |
| 20260509111730 | 23 | 340 | 0.0 | 8.0 | 0.00 | 0.00 | 0.00 | 94 | 1004.7 |
| 20260509111630 | 23 | 340 | 1.6 | 8.0 | 0.00 | 0.00 | 0.00 | 94 | 1004.7 |
| 20260509111530 | 23 | 340 | 3.2 | 8.0 | 0.00 | 0.00 | 0.00 | 94 | 1004.7 |
| 20260509111429 | 23 | 340 | 3.2 | 8.0 | 0.00 | 0.00 | 0.00 | 94 | 1004.7 |
| 20260509111328 | 23 | 340 | 4.8 | 8.0 | 0.00 | 0.00 | 0.00 | 94 | 1004.6 |
| 20260509111226 | 23 | 340 | 4.8 | 8.0 | 0.00 | 0.00 | 0.00 | 94 | 1004.8 |
| 20260509111125 | 23 | 340 | 6.4 | 8.0 | 0.00 | 0.00 | 0.00 | 94 | 1004.7 |
| 20260509111018 | 23 | 340 | 6.4 | 8.0 | 0.00 | 0.00 | 0.00 | 94 | 1004.7 |
| 20260509110916 | 23 | 336 | 6.4 | 8.0 | 0.00 | 0.00 | 0.00 | 94 | 1004.6 |
| 20260509110815 | 23 | 340 | 6.4 | 8.0 | 0.00 | 0.00 | 0.00 | 94 | 1004.8 |
| 20260509110710 | 23 | 0 | 4.8 | 6.4 | 0.00 | 0.00 | 0.00 | 94 | 1004.7 |
| 20260509110603 | 23 | 14 | 1.6 | 6.4 | 0.00 | 0.00 | 0.00 | 94 | 1004.6 |
| 20260509110504 | 23 | 89 | 0.0 | 0.0 | 0.00 | 0.00 | 0.00 | 94 | 1004.7 |
| 20260509110403 | 23 | 93 | 0.0 | 0.0 | 0.00 | 0.00 | 0.00 | 94 | 1004.5 |
| 20260509110303 | 23 | 94 | 0.0 | 0.0 | 0.00 | 0.00 | 0.00 | 94 | 1004.5 |
| 20260509110203 | 23 | 131 | 0.0 | 0.0 | 0.00 | 0.00 | 0.00 | 94 | 1004.5 |
| 20260509110104 | 23 | 134 | 0.0 | 0.0 | 0.00 | 0.00 | 0.00 | 94 | 1004.5 |
| 20260509110004 | 23 | 134 | 0.0 | 0.0 | 0.00 | 0.00 | 0.00 | 94 | 1004.4 |
| 20260509105901 | 23 | 134 | 0.0 | 0.0 | 0.00 | 0.00 | 0.00 | 94 | 1004.4 |
| 20260509105802 | 23 | 134 | 0.0 | 0.0 | 0.00 | 0.00 | 0.00 | 94 | 1004.3 |
| 20260509105702 | 23 | 134 | 0.0 | 0.0 | 0.00 | 0.00 | 0.00 | 94 | 1004.3 |
| 20260509105604 | 23 | 134 | 0.0 | 0.0 | 0.00 | 0.00 | 0.00 | 94 | 1004.2 |
| 20260509105505 | 23 | 134 | 0.0 | 0.0 | 0.00 | 0.00 | 0.00 | 94 | 1004.2 |
| 20260509105403 | 23 | 134 | 0.0 | 0.0 | 0.00 | 0.00 | 0.00 | 94 | 1004.1 |
| 20260509105306 | 23 | 134 | 0.0 | 0.0 | 0.00 | 0.00 | 0.00 | 94 | 1004.1 |
| 20260509105203 | 23 | 134 | 0.0 | 0.0 | 0.00 | 0.00 | 0.00 | 94 | 1004.1 |
| 20260509105103 | 23 | 134 | 0.0 | 0.0 | 0.00 | 0.00 | 0.00 | 94 | 1004.0 |
| 20260509105004 | 23 | 134 | 0.0 | 0.0 | 0.00 | 0.00 | 0.00 | 94 | 1004.0 |
| 20260509104903 | 23 | 134 | 0.0 | 0.0 | 0.00 | 0.00 | 0.00 | 94 | 1003.9 |
| 20260509104804 | 23 | 134 | 0.0 | 0.0 | 0.00 | 0.00 | 0.00 | 94 | 1003.9 |
| 20260509104703 | 23 | 134 | 0.0 | 0.0 | 0.00 | 0.00 | 0.00 | 94 | 1003.9 |
| 20260509104604 | 23 | 134 | 0.0 | 0.0 | 0.00 | 0.00 | 0.00 | 94 | 1003.9 |
| 20260509104502 | 23 | 134 | 0.0 | 0.0 | 0.00 | 0.00 | 0.00 | 94 | 1004.0 |
| 20260509104403 | 23 | 134 | 0.0 | 0.0 | 0.00 | 0.00 | 0.00 | 94 | 1004.1 |
| 20260509104302 | 23 | 134 | 0.0 | 0.0 | 0.00 | 0.00 | 0.00 | 94 | 1004.0 |
| 20260509104202 | 23 | 134 | 0.0 | 0.0 | 0.00 | 0.00 | 0.00 | 94 | 1004.0 |
| 20260509104108 | 23 | 134 | 0.0 | 0.0 | 0.00 | 0.00 | 0.00 | 94 | 1004.1 |
| 20260509104004 | 23 | 134 | 0.0 | 0.0 | 0.00 | 0.00 | 0.00 | 94 | 1004.0 |
| 20260509103902 | 23 | 134 | 0.0 | 0.0 | 0.00 | 0.00 | 0.00 | 94 | 1004.0 |
| 20260509103803 | 23 | 134 | 0.0 | 0.0 | 0.00 | 0.00 | 0.00 | 94 | 1004.1 |
| 20260509103702 | 23 | 134 | 0.0 | 1.6 | 0.00 | 0.00 | 0.00 | 94 | 1004.0 |
| 20260509103604 | 23 | 134 | 0.0 | 1.6 | 0.00 | 0.00 | 0.00 | 94 | 1004.0 |
| 20260509103504 | 23 | 134 | 0.0 | 1.6 | 0.00 | 0.00 | 0.00 | 94 | 1004.0 |
| 20260509103402 | 23 | 134 | 0.0 | 1.6 | 0.00 | 0.00 | 0.00 | 94 | 1004.1 |
| 20260509103303 | 23 | 134 | 0.0 | 1.6 | 0.00 | 0.00 | 0.00 | 94 | 1004.0 |
| 20260509103202 | 23 | 134 | 0.0 | 1.6 | 0.00 | 0.00 | 0.00 | 94 | 1004.1 |
| 20260509103104 | 23 | 134 | 0.0 | 1.6 | 0.00 | 0.00 | 0.00 | 94 | 1004.1 |
| 20260509103002 | 23 | 134 | 0.0 | 1.6 | 0.00 | 0.00 | 0.00 | 94 | 1004.0 |
| 20260509102904 | 23 | 134 | 0.0 | 1.6 | 0.00 | 0.00 | 0.00 | 94 | 1004.0 |
| 20260509102803 | 23 | 134 | 0.0 | 1.6 | 0.00 | 0.00 | 0.00 | 94 | 1003.9 |
| 20260509102703 | 23 | 134 | 0.0 | 1.6 | 0.00 | 0.00 | 0.00 | 94 | 1004.0 |
| 20260509102604 | 23 | 134 | 0.0 | 1.6 | 0.00 | 0.00 | 0.00 | 94 | 1004.0 |
| 20260509102504 | 23 | 134 | 0.0 | 1.6 | 0.00 | 0.00 | 0.00 | 94 | 1004.0 |
| 20260509102404 | 23 | 134 | 0.0 | 1.6 | 0.00 | 0.00 | 0.00 | 94 | 1003.9 |
| 20260509102305 | 23 | 134 | 0.0 | 1.6 | 0.00 | 0.00 | 0.00 | 94 | 1003.9 |
| 20260509102203 | 23 | 134 | 0.0 | 1.6 | 0.00 | 0.00 | 0.00 | 94 | 1003.9 |
| 20260509102103 | 23 | 134 | 0.0 | 3.2 | 0.00 | 0.00 | 0.00 | 94 | 1004.0 |
| 20260509102003 | 23 | 134 | 0.0 | 3.2 | 0.00 | 0.00 | 0.00 | 94 | 1004.0 |
| 20260509101904 | 23 | 134 | 0.0 | 3.2 | 0.00 | 0.00 | 0.00 | 94 | 1004.1 |
| 20260509101802 | 23 | 134 | 0.0 | 3.2 | 0.00 | 0.00 | 0.00 | 94 | 1004.0 |
| 20260509101702 | 23 | 134 | 0.0 | 3.2 | 0.00 | 0.00 | 0.00 | 94 | 1004.0 |
| 20260509101602 | 23 | 134 | 0.0 | 3.2 | 0.00 | 0.00 | 0.00 | 94 | 1003.9 |
| 20260509101503 | 23 | 134 | 0.0 | 3.2 | 0.00 | 0.00 | 0.00 | 94 | 1003.9 |
| 20260509101403 | 23 | 134 | 0.0 | 3.2 | 0.00 | 0.00 | 0.00 | 94 | 1003.9 |
| 20260509101303 | 23 | 134 | 1.6 | 3.2 | 0.00 | 0.00 | 0.00 | 94 | 1003.9 |
| 20260509101204 | 23 | 134 | 0.0 | 3.2 | 0.00 | 0.00 | 0.00 | 94 | 1003.8 |
| 20260509101103 | 23 | 134 | 0.0 | 1.6 | 0.00 | 0.00 | 0.00 | 94 | 1003.8 |
| 20260509101003 | 23 | 134 | 0.0 | 0.0 | 0.00 | 0.00 | 0.00 | 94 | 1003.8 |
| 20260509100903 | 23 | 134 | 0.0 | 0.0 | 0.00 | 0.00 | 0.00 | 94 | 1003.9 |
| 20260509100802 | 23 | 134 | 0.0 | 0.0 | 0.00 | 0.00 | 0.00 | 94 | 1003.8 |
| 20260509100703 | 23 | 134 | 0.0 | 0.0 | 0.00 | 0.00 | 0.00 | 94 | 1003.8 |
| 20260509100604 | 23 | 134 | 0.0 | 0.0 | 0.00 | 0.00 | 0.00 | 94 | 1003.8 |
| 20260509100503 | 23 | 134 | 0.0 | 0.0 | 0.00 | 0.00 | 0.00 | 94 | 1003.7 |
| 20260509100403 | 23 | 134 | 0.0 | 0.0 | 0.00 | 0.00 | 0.00 | 94 | 1003.7 |
| 20260509100302 | 23 | 134 | 0.0 | 0.0 | 0.00 | 0.00 | 0.00 | 94 | 1003.7 |
| 20260509100204 | 23 | 134 | 0.0 | 0.0 | 0.00 | 0.00 | 0.00 | 94 | 1003.7 |
| 20260509095950 | 23 | 134 | 0.0 | 0.0 | 0.00 | 0.00 | 0.00 | 94 | 1003.6 |
| 20260509095835 | 23 | 134 | 0.0 | 0.0 | 0.00 | 0.00 | 0.00 | 94 | 1003.6 |
| 20260509095733 | 23 | 134 | 0.0 | 0.0 | 0.00 | 0.00 | 0.00 | 94 | 1003.6 |
| 20260509095630 | 23 | 134 | 0.0 | 0.0 | 0.00 | 0.00 | 0.00 | 94 | 1003.6 |
| 20260509095532 | 23 | 134 | 0.0 | 0.0 | 0.00 | 0.00 | 0.00 | 94 | 1003.6 |
| 20260509095432 | 23 | 134 | 0.0 | 0.0 | 0.00 | 0.00 | 0.00 | 94 | 1003.6 |
| 20260509095330 | 23 | 134 | 0.0 | 0.0 | 0.00 | 0.00 | 0.00 | 94 | 1003.5 |
| 20260509095229 | 23 | 134 | 0.0 | 0.0 | 0.00 | 0.00 | 0.00 | 94 | 1003.5 |
| 20260509095126 | 23 | 134 | 0.0 | 0.0 | 0.00 | 0.00 | 0.00 | 93 | 1003.5 |
| 20260509095027 | 23 | 134 | 0.0 | 0.0 | 0.00 | 0.00 | 0.00 | 94 | 1003.5 |
| 20260509094928 | 23 | 134 | 0.0 | 0.0 | 0.00 | 0.00 | 0.00 | 93 | 1003.5 |
| 20260509094826 | 23 | 134 | 0.0 | 0.0 | 0.00 | 0.00 | 0.00 | 93 | 1003.6 |
| 20260509094728 | 23 | 134 | 0.0 | 0.0 | 0.00 | 0.00 | 0.00 | 93 | 1003.6 |
| 20260509094626 | 23 | 134 | 0.0 | 0.0 | 0.00 | 0.00 | 0.00 | 93 | 1003.6 |
| 20260509094526 | 23 | 134 | 0.0 | 0.0 | 0.00 | 0.00 | 0.00 | 93 | 1003.6 |
| 20260509094428 | 23 | 134 | 0.0 | 0.0 | 0.00 | 0.00 | 0.00 | 93 | 1003.6 |
| 20260509094327 | 23 | 134 | 0.0 | 0.0 | 0.00 | 0.00 | 0.00 | 93 | 1003.6 |
| 20260509094227 | 23 | 134 | 0.0 | 0.0 | 0.00 | 0.00 | 0.00 | 93 | 1003.6 |
| 20260509094128 | 23 | 134 | 0.0 | 0.0 | 0.00 | 0.00 | 0.00 | 93 | 1003.6 |
| 20260509094029 | 23 | 134 | 0.0 | 0.0 | 0.00 | 0.00 | 0.00 | 93 | 1003.5 |
| 20260509093927 | 23 | 134 | 0.0 | 1.6 | 0.00 | 0.00 | 0.00 | 93 | 1003.6 |
| 20260509093826 | 23 | 134 | 0.0 | 3.2 | 0.00 | 0.00 | 0.00 | 93 | 1003.5 |
| 20260509093726 | 23 | 134 | 0.0 | 4.8 | 0.00 | 0.00 | 0.00 | 93 | 1003.6 |
| 20260509093627 | 23 | 134 | 0.0 | 4.8 | 0.00 | 0.00 | 0.00 | 93 | 1003.5 |
| 20260509093528 | 23 | 134 | 0.0 | 4.8 | 0.00 | 0.00 | 0.00 | 93 | 1003.5 |
| 20260509093428 | 23 | 134 | 0.0 | 4.8 | 0.00 | 0.00 | 0.00 | 93 | 1003.6 |
| 20260509093327 | 23 | 134 | 0.0 | 4.8 | 0.00 | 0.00 | 0.00 | 93 | 1003.5 |
| 20260509093228 | 23 | 134 | 0.0 | 4.8 | 0.00 | 0.00 | 0.00 | 93 | 1003.6 |
| 20260509093126 | 23 | 134 | 0.0 | 4.8 | 0.00 | 0.00 | 0.00 | 93 | 1003.5 |
| 20260509093028 | 23 | 134 | 1.6 | 4.8 | 0.00 | 0.00 | 0.00 | 93 | 1003.6 |
| 20260509092928 | 23 | 134 | 3.2 | 4.8 | 0.00 | 0.00 | 0.00 | 93 | 1003.6 |
| 20260509092826 | 23 | 135 | 1.6 | 4.8 | 0.00 | 0.00 | 0.00 | 93 | 1003.7 |
| 20260509092726 | 23 | 137 | 1.6 | 3.2 | 0.00 | 0.00 | 0.00 | 93 | 1003.7 |
| 20260509092626 | 23 | 135 | 1.6 | 3.2 | 0.00 | 0.00 | 0.00 | 93 | 1003.6 |
| 20260509092526 | 23 | 135 | 1.6 | 3.2 | 0.00 | 0.00 | 0.00 | 93 | 1003.7 |
| 20260509092426 | 23 | 135 | 1.6 | 3.2 | 0.00 | 0.00 | 0.00 | 93 | 1003.8 |
| 20260509092326 | 23 | 135 | 0.0 | 3.2 | 0.00 | 0.00 | 0.00 | 93 | 1003.7 |
| 20260509092226 | 23 | 135 | 0.0 | 0.0 | 0.00 | 0.00 | 0.00 | 93 | 1003.8 |
| 20260509092127 | 23 | 137 | 0.0 | 0.0 | 0.00 | 0.00 | 0.00 | 93 | 1003.9 |
| 20260509092027 | 23 | 137 | 0.0 | 0.0 | 0.00 | 0.00 | 0.00 | 93 | 1003.7 |
| 20260509091926 | 23 | 137 | 0.0 | 0.0 | 0.00 | 0.00 | 0.00 | 93 | 1003.8 |
| 20260509091827 | 23 | 137 | 0.0 | 0.0 | 0.00 | 0.00 | 0.00 | 93 | 1003.7 |
| 20260509091727 | 23 | 137 | 0.0 | 0.0 | 0.00 | 0.00 | 0.00 | 93 | 1003.6 |
| 20260509091627 | 23 | 137 | 0.0 | 0.0 | 0.00 | 0.00 | 0.00 | 93 | 1003.6 |
| 20260509091527 | 23 | 137 | 0.0 | 0.0 | 0.00 | 0.00 | 0.00 | 93 | 1003.6 |
| 20260509091427 | 23 | 137 | 0.0 | 0.0 | 0.00 | 0.00 | 0.00 | 93 | 1003.7 |
| 20260509091326 | 23 | 137 | 0.0 | 0.0 | 0.00 | 0.00 | 0.00 | 93 | 1003.8 |
| 20260509091226 | 23 | 137 | 0.0 | 0.0 | 0.00 | 0.00 | 0.00 | 93 | 1003.8 |
| 20260509091126 | 23 | 137 | 0.0 | 0.0 | 0.00 | 0.00 | 0.00 | 93 | 1003.8 |
| 20260509091027 | 23 | 137 | 0.0 | 0.0 | 0.00 | 0.00 | 0.00 | 93 | 1004.0 |
| 20260509090926 | 23 | 137 | 0.0 | 0.0 | 0.00 | 0.00 | 0.00 | 93 | 1003.9 |
| 20260509090826 | 23 | 137 | 0.0 | 0.0 | 0.00 | 0.00 | 0.00 | 93 | 1004.0 |
| 20260509090725 | 23 | 137 | 0.0 | 0.0 | 0.00 | 0.00 | 0.00 | 93 | 1004.0 |
| 20260509090627 | 23 | 137 | 0.0 | 0.0 | 0.00 | 0.00 | 0.00 | 93 | 1003.9 |
| 20260509090526 | 23 | 137 | 0.0 | 0.0 | 0.00 | 0.00 | 0.00 | 93 | 1004.0 |
| 20260509090425 | 23 | 137 | 0.0 | 0.0 | 0.00 | 0.00 | 0.00 | 93 | 1004.0 |
| 20260509090326 | 23 | 137 | 0.0 | 0.0 | 0.00 | 0.00 | 0.00 | 93 | 1004.0 |
| 20260509090226 | 23 | 137 | 0.0 | 0.0 | 0.00 | 0.00 | 0.00 | 93 | 1004.0 |
| 20260509090125 | 23 | 137 | 0.0 | 0.0 | 0.00 | 0.00 | 0.00 | 93 | 1004.0 |
| 20260509090027 | 23 | 137 | 0.0 | 0.0 | 0.00 | 0.00 | 0.00 | 93 | 1004.0 |
| 20260509085927 | 23 | 137 | 0.0 | 0.0 | 0.00 | 0.00 | 0.00 | 93 | 1003.9 |
| 20260509085826 | 23 | 137 | 0.0 | 0.0 | 0.00 | 0.00 | 0.00 | 93 | 1004.0 |
| 20260509085727 | 23 | 137 | 0.0 | 0.0 | 0.00 | 0.00 | 0.00 | 93 | 1004.0 |
| 20260509085626 | 23 | 137 | 0.0 | 0.0 | 0.00 | 0.00 | 0.00 | 93 | 1004.1 |
| 20260509085525 | 23 | 137 | 0.0 | 0.0 | 0.00 | 0.00 | 0.00 | 93 | 1004.0 |
| 20260509085425 | 23 | 137 | 0.0 | 0.0 | 0.00 | 0.00 | 0.00 | 93 | 1004.0 |
| 20260509085327 | 23 | 137 | 0.0 | 0.0 | 0.00 | 0.00 | 0.00 | 93 | 1004.0 |
| 20260509085225 | 23 | 137 | 0.0 | 0.0 | 0.00 | 0.00 | 0.00 | 93 | 1004.0 |
| 20260509085127 | 23 | 137 | 0.0 | 0.0 | 0.00 | 0.00 | 0.00 | 93 | 1004.1 |
| 20260509085027 | 23 | 137 | 0.0 | 0.0 | 0.00 | 0.00 | 0.00 | 93 | 1004.2 |
| 20260509084927 | 23 | 137 | 0.0 | 0.0 | 0.00 | 0.00 | 0.00 | 93 | 1004.1 |
| 20260509084825 | 23 | 137 | 0.0 | 0.0 | 0.00 | 0.00 | 0.00 | 93 | 1004.1 |
| 20260509084727 | 23 | 137 | 0.0 | 0.0 | 0.00 | 0.00 | 0.00 | 93 | 1004.2 |
| 20260509084625 | 23 | 137 | 0.0 | 0.0 | 0.00 | 0.00 | 0.00 | 93 | 1004.2 |
| 20260509084526 | 23 | 137 | 0.0 | 0.0 | 0.00 | 0.00 | 0.00 | 93 | 1004.1 |
| 20260509084425 | 23 | 137 | 0.0 | 0.0 | 0.00 | 0.00 | 0.00 | 93 | 1004.1 |
| 20260509084326 | 23 | 137 | 0.0 | 0.0 | 0.00 | 0.00 | 0.00 | 93 | 1004.1 |
| 20260509084225 | 23 | 137 | 0.0 | 0.0 | 0.00 | 0.00 | 0.00 | 93 | 1004.1 |
| 20260509084127 | 23 | 137 | 0.0 | 0.0 | 0.00 | 0.00 | 0.00 | 93 | 1004.1 |
| 20260509084025 | 23 | 137 | 0.0 | 0.0 | 0.00 | 0.00 | 0.00 | 93 | 1004.1 |
| 20260509083926 | 23 | 137 | 0.0 | 0.0 | 0.00 | 0.00 | 0.00 | 93 | 1004.0 |
| 20260509083825 | 23 | 137 | 0.0 | 0.0 | 0.00 | 0.00 | 0.00 | 93 | 1004.1 |
| 20260509083725 | 23 | 137 | 0.0 | 0.0 | 0.00 | 0.00 | 0.00 | 93 | 1004.1 |
| 20260509083625 | 23 | 137 | 0.0 | 0.0 | 0.00 | 0.00 | 0.00 | 93 | 1004.1 |
| 20260509083528 | 23 | 137 | 0.0 | 0.0 | 0.00 | 0.00 | 0.00 | 93 | 1004.1 |
| 20260509083425 | 23 | 137 | 0.0 | 0.0 | 0.00 | 0.00 | 0.00 | 93 | 1004.2 |
| 20260509083326 | 23 | 137 | 0.0 | 0.0 | 0.00 | 0.00 | 0.00 | 93 | 1004.2 |
| 20260509083226 | 23 | 137 | 0.0 | 0.0 | 0.00 | 0.00 | 0.00 | 93 | 1004.1 |
| 20260509083126 | 23 | 137 | 0.0 | 0.0 | 0.00 | 0.00 | 0.00 | 93 | 1004.1 |
| 20260509083026 | 23 | 137 | 0.0 | 0.0 | 0.00 | 0.00 | 0.00 | 93 | 1004.0 |
| 20260509082924 | 23 | 137 | 0.0 | 0.0 | 0.00 | 0.00 | 0.00 | 93 | 1004.0 |
| 20260509082824 | 23 | 137 | 0.0 | 0.0 | 0.00 | 0.00 | 0.00 | 93 | 1004.0 |
| 20260509082724 | 23 | 137 | 0.0 | 0.0 | 0.00 | 0.00 | 0.00 | 93 | 1003.9 |
| 20260509082627 | 23 | 137 | 0.0 | 0.0 | 0.00 | 0.00 | 0.00 | 93 | 1003.9 |
| 20260509082525 | 23 | 137 | 0.0 | 0.0 | 0.00 | 0.00 | 0.00 | 93 | 1003.9 |
| 20260509082424 | 23 | 137 | 0.0 | 0.0 | 0.00 | 0.00 | 0.00 | 93 | 1003.9 |
| 20260509082324 | 23 | 137 | 0.0 | 0.0 | 0.00 | 0.00 | 0.00 | 93 | 1003.9 |
| 20260509082226 | 23 | 137 | 0.0 | 1.6 | 0.00 | 0.00 | 0.00 | 93 | 1003.9 |
| 20260509082126 | 23 | 137 | 0.0 | 1.6 | 0.00 | 0.00 | 0.00 | 93 | 1004.0 |
| 20260509082026 | 23 | 137 | 0.0 | 1.6 | 0.00 | 0.00 | 0.00 | 93 | 1004.0 |
| 20260509081926 | 23 | 137 | 0.0 | 1.6 | 0.00 | 0.00 | 0.00 | 93 | 1004.0 |
| 20260509081824 | 23 | 137 | 0.0 | 4.8 | 0.00 | 0.00 | 0.00 | 93 | 1003.9 |
| 20260509081725 | 23 | 137 | 0.0 | 4.8 | 0.00 | 0.00 | 0.00 | 93 | 1004.0 |
| 20260509081625 | 23 | 137 | 0.0 | 4.8 | 0.00 | 0.00 | 0.00 | 93 | 1004.0 |
| 20260509081525 | 23 | 137 | 0.0 | 4.8 | 0.00 | 0.00 | 0.00 | 93 | 1003.9 |
| 20260509081426 | 23 | 137 | 0.0 | 4.8 | 0.00 | 0.00 | 0.00 | 93 | 1003.9 |
| 20260509081324 | 23 | 137 | 0.0 | 4.8 | 0.00 | 0.00 | 0.00 | 93 | 1003.9 |
| 20260509081226 | 23 | 135 | 0.0 | 4.8 | 0.00 | 0.00 | 0.00 | 93 | 1004.0 |
| 20260509081124 | 23 | 135 | 0.0 | 4.8 | 0.00 | 0.00 | 0.00 | 93 | 1004.0 |
| 20260509081025 | 23 | 135 | 1.6 | 4.8 | 0.00 | 0.00 | 0.00 | 93 | 1004.0 |
| 20260509080925 | 23 | 135 | 1.6 | 4.8 | 0.00 | 0.00 | 0.00 | 93 | 1004.0 |
| 20260509080824 | 23 | 137 | 1.6 | 3.2 | 0.00 | 0.00 | 0.00 | 93 | 1004.0 |
| 20260509080726 | 23 | 137 | 0.0 | 3.2 | 0.00 | 0.00 | 0.00 | 93 | 1003.9 |
| 20260509080625 | 23 | 131 | 0.0 | 3.2 | 0.00 | 0.00 | 0.00 | 93 | 1003.9 |
| 20260509080525 | 23 | 131 | 1.6 | 3.2 | 0.00 | 0.00 | 0.00 | 93 | 1003.8 |
| 20260509080425 | 23 | 131 | 1.6 | 3.2 | 0.00 | 0.00 | 0.00 | 93 | 1003.8 |
| 20260509080324 | 23 | 131 | 0.0 | 4.8 | 0.00 | 0.00 | 0.00 | 93 | 1003.8 |
| 20260509080225 | 23 | 131 | 0.0 | 4.8 | 0.00 | 0.00 | 0.00 | 93 | 1003.8 |
| 20260509080125 | 23 | 131 | 0.0 | 4.8 | 0.00 | 0.00 | 0.00 | 93 | 1003.8 |
| 20260509080024 | 23 | 131 | 1.6 | 4.8 | 0.00 | 0.00 | 0.00 | 93 | 1003.8 |
| 20260509075924 | 23 | 131 | 1.6 | 6.4 | 0.00 | 0.00 | 0.00 | 93 | 1003.8 |
| 20260509075825 | 23 | 131 | 1.6 | 6.4 | 0.00 | 0.00 | 0.00 | 93 | 1003.8 |
| 20260509075724 | 23 | 131 | 1.6 | 6.4 | 0.00 | 0.00 | 0.00 | 93 | 1003.8 |
| 20260509075624 | 23 | 131 | 0.0 | 6.4 | 0.00 | 0.00 | 0.00 | 93 | 1003.8 |
| 20260509075525 | 23 | 131 | 3.2 | 6.4 | 0.00 | 0.00 | 0.00 | 93 | 1003.8 |
| 20260509075424 | 23 | 131 | 3.2 | 6.4 | 0.00 | 0.00 | 0.00 | 93 | 1003.8 |
| 20260509075326 | 23 | 114 | 3.2 | 6.4 | 0.00 | 0.00 | 0.00 | 93 | 1003.8 |
| 20260509075225 | 23 | 114 | 3.2 | 6.4 | 0.00 | 0.00 | 0.00 | 93 | 1003.8 |
| 20260509075125 | 23 | 114 | 4.8 | 6.4 | 0.00 | 0.00 | 0.00 | 93 | 1003.8 |
| 20260509075026 | 23 | 111 | 3.2 | 6.4 | 0.00 | 0.00 | 0.00 | 93 | 1003.9 |
| 20260509074925 | 23 | 111 | 3.2 | 6.4 | 0.00 | 0.00 | 0.00 | 93 | 1003.8 |
| 20260509074824 | 23 | 111 | 4.8 | 6.4 | 0.00 | 0.00 | 0.00 | 93 | 1003.9 |
| 20260509074723 | 23 | 110 | 4.8 | 6.4 | 0.00 | 0.00 | 0.00 | 93 | 1003.9 |
| 20260509074625 | 23 | 114 | 4.8 | 6.4 | 0.00 | 0.00 | 0.00 | 93 | 1004.0 |
| 20260509074524 | 23 | 114 | 4.8 | 6.4 | 0.00 | 0.00 | 0.00 | 93 | 1003.9 |
| 20260509074425 | 23 | 114 | 3.2 | 6.4 | 0.00 | 0.00 | 0.00 | 93 | 1003.9 |
| 20260509074323 | 23 | 116 | 3.2 | 6.4 | 0.00 | 0.00 | 0.00 | 93 | 1003.8 |
| 20260509074225 | 23 | 116 | 4.8 | 6.4 | 0.00 | 0.00 | 0.00 | 93 | 1003.8 |
| 20260509074126 | 23 | 114 | 3.2 | 8.0 | 0.00 | 0.00 | 0.00 | 93 | 1003.7 |
| 20260509074024 | 23 | 116 | 1.6 | 8.0 | 0.00 | 0.00 | 0.00 | 93 | 1003.8 |
| 20260509073925 | 23 | 116 | 3.2 | 11.3 | 0.00 | 0.00 | 0.00 | 93 | 1003.7 |
| 20260509073824 | 23 | 116 | 3.2 | 11.3 | 0.00 | 0.00 | 0.00 | 92 | 1003.8 |
| 20260509073725 | 23 | 116 | 4.8 | 11.3 | 0.00 | 0.00 | 0.00 | 92 | 1003.8 |
| 20260509073626 | 23 | 116 | 4.8 | 11.3 | 0.00 | 0.00 | 0.00 | 93 | 1003.8 |
| 20260509073524 | 23 | 117 | 4.8 | 11.3 | 0.00 | 0.00 | 0.00 | 92 | 1003.8 |
| 20260509073424 | 23 | 117 | 4.8 | 11.3 | 0.00 | 0.00 | 0.00 | 92 | 1003.9 |
| 20260509073323 | 23 | 113 | 4.8 | 11.3 | 0.00 | 0.00 | 0.00 | 92 | 1003.9 |
| 20260509073223 | 23 | 113 | 4.8 | 11.3 | 0.00 | 0.00 | 0.00 | 92 | 1003.9 |
| 20260509073123 | 23 | 123 | 6.4 | 11.3 | 0.00 | 0.00 | 0.00 | 92 | 1003.9 |
| 20260509073024 | 23 | 97 | 6.4 | 11.3 | 0.00 | 0.00 | 0.00 | 92 | 1003.9 |
| 20260509072923 | 23 | 117 | 4.8 | 9.7 | 0.00 | 0.00 | 0.00 | 92 | 1003.9 |
| 20260509072823 | 23 | 117 | 4.8 | 9.7 | 0.00 | 0.00 | 0.00 | 92 | 1003.8 |
| 20260509072723 | 23 | 118 | 3.2 | 9.7 | 0.00 | 0.00 | 0.00 | 92 | 1003.9 |
| 20260509072625 | 23 | 116 | 4.8 | 9.7 | 0.00 | 0.00 | 0.00 | 92 | 1003.8 |
| 20260509072524 | 23 | 117 | 6.4 | 9.7 | 0.00 | 0.00 | 0.00 | 92 | 1003.8 |
| 20260509072423 | 23 | 102 | 3.2 | 9.7 | 0.00 | 0.00 | 0.00 | 92 | 1003.7 |
| 20260509072323 | 23 | 111 | 3.2 | 9.7 | 0.00 | 0.00 | 0.00 | 92 | 1003.6 |
| 20260509072223 | 23 | 111 | 6.4 | 9.7 | 0.00 | 0.00 | 0.00 | 92 | 1003.6 |
| 20260509072124 | 23 | 104 | 4.8 | 9.7 | 0.00 | 0.00 | 0.00 | 92 | 1003.6 |
| 20260509072025 | 23 | 127 | 4.8 | 9.7 | 0.00 | 0.00 | 0.00 | 92 | 1003.6 |
| 20260509071923 | 23 | 125 | 6.4 | 9.7 | 0.00 | 0.00 | 0.00 | 92 | 1003.5 |
| 20260509071826 | 23 | 111 | 6.4 | 9.7 | 0.00 | 0.00 | 0.00 | 92 | 1003.5 |
| 20260509071725 | 23 | 142 | 6.4 | 9.7 | 0.00 | 0.00 | 0.00 | 92 | 1003.6 |
| 20260509071623 | 23 | 134 | 4.8 | 9.7 | 0.00 | 0.00 | 0.00 | 92 | 1003.6 |
| 20260509071525 | 23 | 133 | 6.4 | 9.7 | 0.00 | 0.00 | 0.00 | 92 | 1003.6 |
| 20260509071423 | 23 | 125 | 6.4 | 9.7 | 0.00 | 0.00 | 0.00 | 92 | 1003.6 |
| 20260509071323 | 23 | 152 | 6.4 | 8.0 | 0.00 | 0.00 | 0.00 | 92 | 1003.6 |
| 20260509071223 | 23 | 135 | 4.8 | 8.0 | 0.00 | 0.00 | 0.00 | 92 | 1003.6 |
| 20260509071124 | 23 | 125 | 3.2 | 8.0 | 0.00 | 0.00 | 0.00 | 92 | 1003.7 |
| 20260509071022 | 23 | 127 | 3.2 | 8.0 | 0.00 | 0.00 | 0.00 | 92 | 1003.7 |
| 20260509070924 | 23 | 123 | 4.8 | 8.0 | 0.00 | 0.00 | 0.00 | 92 | 1003.8 |
| 20260509070824 | 23 | 128 | 4.8 | 6.4 | 0.00 | 0.00 | 0.00 | 92 | 1003.8 |
| 20260509070724 | 23 | 137 | 3.2 | 6.4 | 0.00 | 0.00 | 0.00 | 92 | 1003.8 |
| 20260509070636 | 23 | 137 | 3.2 | 6.4 | 0.00 | 0.00 | 0.00 | 92 | 1004.0 |
| 20260509070628 | 23 | 140 | 3.2 | 6.4 | 0.00 | 0.00 | 0.00 | 92 | 1003.9 |
| 20260509070606 | 23 | 141 | 3.2 | 6.4 | 0.00 | 0.00 | 0.00 | 92 | 1003.9 |
| 20260509070540 | 23 | 141 | 3.2 | 6.4 | 0.00 | 0.00 | 0.00 | 92 | 1003.9 |
| 20260509070204 | 23 | 137 | 3.2 | 6.4 | 0.00 | 0.00 | 0.00 | 92 | 1004.0 |
| 20260509070104 | 23 | 138 | 1.6 | 4.8 | 0.00 | 0.00 | 0.00 | 92 | 1004.0 |
| 20260509070004 | 23 | 138 | 3.2 | 4.8 | 0.00 | 0.00 | 0.00 | 92 | 1004.0 |
| 20260509065903 | 23 | 140 | 1.6 | 4.8 | 0.00 | 0.00 | 0.00 | 92 | 1004.0 |
| 20260509065801 | 23 | 140 | 1.6 | 4.8 | 0.00 | 0.00 | 0.00 | 92 | 1003.9 |
| 20260509065703 | 23 | 140 | 1.6 | 4.8 | 0.00 | 0.00 | 0.00 | 92 | 1004.0 |
| 20260509065603 | 23 | 141 | 1.6 | 6.4 | 0.00 | 0.00 | 0.00 | 92 | 1004.0 |
| 20260509065505 | 23 | 140 | 3.2 | 6.4 | 0.00 | 0.00 | 0.00 | 92 | 1004.0 |
| 20260509065403 | 23 | 138 | 3.2 | 6.4 | 0.00 | 0.00 | 0.00 | 92 | 1004.0 |
| 20260509065306 | 23 | 137 | 3.2 | 9.7 | 0.00 | 0.00 | 0.00 | 92 | 1004.0 |
| 20260509065204 | 23 | 133 | 3.2 | 9.7 | 0.00 | 0.00 | 0.00 | 92 | 1004.0 |
| 20260509065103 | 23 | 133 | 3.2 | 9.7 | 0.00 | 0.00 | 0.00 | 92 | 1004.1 |
| 20260509065003 | 23 | 134 | 3.2 | 9.7 | 0.00 | 0.00 | 0.00 | 92 | 1004.0 |
| 20260509064904 | 23 | 123 | 3.2 | 9.7 | 0.00 | 0.00 | 0.00 | 92 | 1004.0 |
| 20260509064803 | 23 | 124 | 3.2 | 9.7 | 0.00 | 0.00 | 0.00 | 92 | 1004.0 |
| 20260509064704 | 23 | 110 | 4.8 | 9.7 | 0.00 | 0.00 | 0.00 | 92 | 1004.0 |
| 20260509064602 | 23 | 111 | 4.8 | 9.7 | 0.00 | 0.00 | 0.00 | 92 | 1004.0 |
| 20260509064502 | 23 | 106 | 6.4 | 9.7 | 0.00 | 0.00 | 0.00 | 92 | 1004.0 |
| 20260509064404 | 23 | 104 | 6.4 | 9.7 | 0.00 | 0.00 | 0.00 | 92 | 1004.1 |
| 20260509064302 | 23 | 120 | 4.8 | 6.4 | 0.00 | 0.00 | 0.00 | 92 | 1004.1 |
| 20260509064203 | 23 | 116 | 3.2 | 6.4 | 0.00 | 0.00 | 0.00 | 92 | 1004.2 |
| 20260509064104 | 23 | 116 | 4.8 | 6.4 | 0.00 | 0.00 | 0.00 | 92 | 1004.1 |
| 20260509064004 | 23 | 116 | 3.2 | 6.4 | 0.00 | 0.00 | 0.00 | 92 | 1004.1 |
| 20260509063901 | 23 | 117 | 3.2 | 4.8 | 0.00 | 0.00 | 0.00 | 92 | 1004.1 |
| 20260509063802 | 23 | 117 | 3.2 | 4.8 | 0.00 | 0.00 | 0.00 | 92 | 1004.3 |
| 20260509063702 | 23 | 116 | 3.2 | 4.8 | 0.00 | 0.00 | 0.00 | 92 | 1004.2 |
| 20260509063603 | 23 | 114 | 3.2 | 4.8 | 0.00 | 0.00 | 0.00 | 92 | 1004.2 |
| 20260509063503 | 23 | 107 | 3.2 | 4.8 | 0.00 | 0.00 | 0.00 | 92 | 1004.3 |
| 20260509063405 | 23 | 107 | 3.2 | 4.8 | 0.00 | 0.00 | 0.00 | 92 | 1004.2 |
| 20260509063302 | 23 | 107 | 3.2 | 4.8 | 0.00 | 0.00 | 0.00 | 92 | 1004.2 |
| 20260509063204 | 23 | 107 | 3.2 | 6.4 | 0.00 | 0.00 | 0.00 | 92 | 1004.3 |
| 20260509063049 | 23 | 107 | 3.2 | 6.4 | 0.00 | 0.00 | 0.00 | 92 | 1004.3 |
| 20260509062934 | 23 | 107 | 3.2 | 6.4 | 0.00 | 0.00 | 0.00 | 92 | 1004.3 |
| 20260509062833 | 23 | 107 | 1.6 | 6.4 | 0.00 | 0.00 | 0.00 | 92 | 1004.3 |
| 20260509062731 | 23 | 107 | 1.6 | 6.4 | 0.00 | 0.00 | 0.00 | 92 | 1004.3 |
| 20260509062632 | 23 | 107 | 3.2 | 6.4 | 0.00 | 0.00 | 0.00 | 92 | 1004.3 |
| 20260509062531 | 23 | 107 | 3.2 | 6.4 | 0.00 | 0.00 | 0.00 | 92 | 1004.3 |
| 20260509062431 | 23 | 109 | 4.8 | 6.4 | 0.00 | 0.00 | 0.00 | 92 | 1004.4 |
| 20260509062332 | 23 | 109 | 4.8 | 6.4 | 0.00 | 0.00 | 0.00 | 92 | 1004.2 |
| 20260509062233 | 23 | 127 | 3.2 | 6.4 | 0.00 | 0.00 | 0.00 | 92 | 1004.3 |
| 20260509062133 | 23 | 127 | 3.2 | 6.4 | 0.00 | 0.00 | 0.00 | 92 | 1004.3 |
| 20260509062033 | 23 | 127 | 3.2 | 6.4 | 0.00 | 0.00 | 0.00 | 92 | 1004.4 |
| 20260509061931 | 23 | 127 | 4.8 | 6.4 | 0.00 | 0.00 | 0.00 | 92 | 1004.3 |
| 20260509061832 | 23 | 142 | 3.2 | 4.8 | 0.00 | 0.00 | 0.00 | 92 | 1004.4 |
| 20260509061733 | 23 | 142 | 3.2 | 4.8 | 0.00 | 0.00 | 0.00 | 92 | 1004.4 |
| 20260509061633 | 23 | 142 | 3.2 | 4.8 | 0.00 | 0.00 | 0.00 | 92 | 1004.4 |
| 20260509061533 | 23 | 142 | 3.2 | 4.8 | 0.00 | 0.00 | 0.00 | 92 | 1004.4 |
| 20260509061432 | 23 | 144 | 3.2 | 4.8 | 0.00 | 0.00 | 0.00 | 92 | 1004.5 |
| 20260509061328 | 23 | 144 | 1.6 | 4.8 | 0.00 | 0.00 | 0.00 | 92 | 1004.5 |
| 20260509061227 | 23 | 144 | 0.0 | 4.8 | 0.00 | 0.00 | 0.00 | 92 | 1004.5 |
| 20260509061122 | 23 | 144 | 0.0 | 4.8 | 0.00 | 0.00 | 0.00 | 92 | 1004.5 |
| 20260509061023 | 23 | 144 | 0.0 | 4.8 | 0.00 | 0.00 | 0.00 | 92 | 1004.6 |
| 20260509060923 | 23 | 144 | 0.0 | 6.4 | 0.00 | 0.00 | 0.00 | 92 | 1004.5 |
| 20260509060821 | 23 | 144 | 0.0 | 6.4 | 0.00 | 0.00 | 0.00 | 91 | 1004.5 |
| 20260509060722 | 23 | 144 | 0.0 | 6.4 | 0.00 | 0.00 | 0.00 | 91 | 1004.6 |
| 20260509060621 | 23 | 144 | 1.6 | 6.4 | 0.00 | 0.00 | 0.00 | 91 | 1004.7 |
| 20260509060523 | 23 | 144 | 3.2 | 6.4 | 0.00 | 0.00 | 0.00 | 91 | 1004.6 |
| 20260509060423 | 23 | 144 | 3.2 | 6.4 | 0.00 | 0.00 | 0.00 | 91 | 1004.5 |
| 20260509060321 | 23 | 144 | 3.2 | 6.4 | 0.00 | 0.00 | 0.00 | 91 | 1004.6 |
| 20260509060224 | 23 | 144 | 1.6 | 6.4 | 0.00 | 0.00 | 0.00 | 91 | 1004.6 |
| 20260509060122 | 23 | 144 | 3.2 | 6.4 | 0.00 | 0.00 | 0.00 | 91 | 1004.6 |
| 20260509060022 | 23 | 144 | 3.2 | 6.4 | 0.00 | 0.00 | 0.00 | 91 | 1004.6 |
| 20260509055924 | 23 | 145 | 3.2 | 6.4 | 0.00 | 0.00 | 0.00 | 91 | 1004.6 |
| 20260509055821 | 23 | 145 | 3.2 | 6.4 | 0.00 | 0.00 | 0.00 | 91 | 1004.5 |
| 20260509055723 | 23 | 147 | 3.2 | 6.4 | 0.00 | 0.00 | 0.00 | 91 | 1004.4 |
| 20260509055622 | 23 | 147 | 1.6 | 6.4 | 0.00 | 0.00 | 0.00 | 91 | 1004.5 |
| 20260509055521 | 23 | 147 | 1.6 | 6.4 | 0.00 | 0.00 | 0.00 | 91 | 1004.4 |
| 20260509055423 | 23 | 147 | 3.2 | 6.4 | 0.00 | 0.00 | 0.00 | 91 | 1004.4 |
| 20260509055323 | 23 | 147 | 4.8 | 6.4 | 0.00 | 0.00 | 0.00 | 91 | 1004.5 |
| 20260509055222 | 23 | 148 | 3.2 | 6.4 | 0.00 | 0.00 | 0.00 | 91 | 1004.5 |
| 20260509055121 | 23 | 158 | 3.2 | 6.4 | 0.00 | 0.00 | 0.00 | 91 | 1004.6 |
| 20260509055021 | 23 | 158 | 1.6 | 6.4 | 0.00 | 0.00 | 0.00 | 91 | 1004.5 |
| 20260509054921 | 23 | 110 | 1.6 | 6.4 | 0.00 | 0.00 | 0.00 | 91 | 1004.5 |
| 20260509054821 | 23 | 110 | 3.2 | 6.4 | 0.00 | 0.00 | 0.00 | 91 | 1004.6 |
| 20260509054722 | 23 | 109 | 1.6 | 8.0 | 0.00 | 0.00 | 0.00 | 91 | 1004.6 |
| 20260509054621 | 23 | 109 | 1.6 | 8.0 | 0.00 | 0.00 | 0.00 | 91 | 1004.6 |
| 20260509054524 | 23 | 109 | 3.2 | 9.7 | 0.00 | 0.00 | 0.00 | 91 | 1004.6 |
| 20260509054422 | 23 | 107 | 4.8 | 9.7 | 0.00 | 0.00 | 0.00 | 91 | 1004.6 |
| 20260509054322 | 23 | 107 | 4.8 | 9.7 | 0.00 | 0.00 | 0.00 | 91 | 1004.5 |
| 20260509054223 | 23 | 107 | 4.8 | 9.7 | 0.00 | 0.00 | 0.00 | 91 | 1004.5 |
| 20260509054122 | 23 | 102 | 4.8 | 9.7 | 0.00 | 0.00 | 0.00 | 91 | 1004.5 |
| 20260509054021 | 23 | 102 | 6.4 | 9.7 | 0.00 | 0.00 | 0.00 | 91 | 1004.4 |
| 20260509053921 | 23 | 102 | 6.4 | 9.7 | 0.00 | 0.00 | 0.00 | 91 | 1004.5 |
| 20260509053822 | 23 | 109 | 6.4 | 9.7 | 0.00 | 0.00 | 0.00 | 91 | 1004.5 |
| 20260509053722 | 23 | 110 | 6.4 | 9.7 | 0.00 | 0.00 | 0.00 | 91 | 1004.4 |
| 20260509053622 | 23 | 109 | 6.4 | 9.7 | 0.00 | 0.00 | 0.00 | 91 | 1004.5 |
| 20260509053521 | 23 | 107 | 4.8 | 8.0 | 0.00 | 0.00 | 0.00 | 91 | 1004.5 |
| 20260509053423 | 23 | 107 | 4.8 | 8.0 | 0.00 | 0.00 | 0.00 | 91 | 1004.5 |
| 20260509053322 | 23 | 102 | 4.8 | 8.0 | 0.00 | 0.00 | 0.00 | 91 | 1004.5 |
| 20260509053221 | 23 | 100 | 4.8 | 8.0 | 0.00 | 0.00 | 0.00 | 91 | 1004.5 |
| 20260509053123 | 23 | 100 | 4.8 | 8.0 | 0.00 | 0.00 | 0.00 | 91 | 1004.4 |
| 20260509053020 | 23 | 103 | 4.8 | 8.0 | 0.00 | 0.00 | 0.00 | 91 | 1004.4 |
| 20260509052911 | 23 | 104 | 4.8 | 8.0 | 0.00 | 0.00 | 0.00 | 91 | 1004.4 |
| 20260509052810 | 23 | 106 | 6.4 | 8.0 | 0.00 | 0.00 | 0.00 | 91 | 1004.4 |
| 20260509052708 | 23 | 106 | 6.4 | 8.0 | 0.00 | 0.00 | 0.00 | 91 | 1004.4 |
| 20260509052604 | 23 | 103 | 4.8 | 8.0 | 0.00 | 0.00 | 0.00 | 91 | 1004.5 |
| 20260509052504 | 23 | 103 | 4.8 | 8.0 | 0.00 | 0.00 | 0.00 | 91 | 1004.5 |
| 20260509052403 | 23 | 104 | 4.8 | 9.7 | 0.00 | 0.00 | 0.00 | 91 | 1004.6 |
| 20260509052306 | 23 | 94 | 4.8 | 9.7 | 0.00 | 0.00 | 0.00 | 91 | 1004.5 |
| 20260509052203 | 23 | 96 | 4.8 | 9.7 | 0.00 | 0.00 | 0.00 | 91 | 1004.6 |
| 20260509052102 | 23 | 93 | 4.8 | 9.7 | 0.00 | 0.00 | 0.00 | 91 | 1004.5 |
| 20260509052004 | 23 | 93 | 4.8 | 9.7 | 0.00 | 0.00 | 0.00 | 91 | 1004.6 |
| 20260509051902 | 23 | 93 | 4.8 | 9.7 | 0.00 | 0.00 | 0.00 | 91 | 1004.5 |
| 20260509051804 | 23 | 78 | 4.8 | 9.7 | 0.00 | 0.00 | 0.00 | 91 | 1004.5 |
| 20260509051702 | 23 | 100 | 6.4 | 11.3 | 0.00 | 0.00 | 0.00 | 91 | 1004.5 |
| 20260509051605 | 23 | 102 | 6.4 | 11.3 | 0.00 | 0.00 | 0.00 | 91 | 1004.5 |
| 20260509051504 | 23 | 110 | 6.4 | 11.3 | 0.00 | 0.00 | 0.00 | 91 | 1004.5 |
| 20260509051403 | 23 | 106 | 6.4 | 11.3 | 0.00 | 0.00 | 0.00 | 91 | 1004.5 |
| 20260509051305 | 23 | 102 | 4.8 | 11.3 | 0.00 | 0.00 | 0.00 | 91 | 1004.6 |
| 20260509051204 | 23 | 103 | 4.8 | 11.3 | 0.00 | 0.00 | 0.00 | 91 | 1004.6 |
| 20260509051102 | 23 | 103 | 6.4 | 11.3 | 0.00 | 0.00 | 0.00 | 91 | 1004.5 |
| 20260509051005 | 23 | 104 | 6.4 | 11.3 | 0.00 | 0.00 | 0.00 | 91 | 1004.6 |
| 20260509050902 | 23 | 97 | 8.0 | 11.3 | 0.00 | 0.00 | 0.00 | 91 | 1004.6 |
| 20260509050802 | 23 | 107 | 6.4 | 11.3 | 0.00 | 0.00 | 0.00 | 91 | 1004.6 |
| 20260509050703 | 23 | 94 | 6.4 | 9.7 | 0.00 | 0.00 | 0.00 | 91 | 1004.6 |
| 20260509050604 | 23 | 109 | 6.4 | 9.7 | 0.00 | 0.00 | 0.00 | 91 | 1004.6 |
| 20260509050504 | 23 | 94 | 4.8 | 8.0 | 0.00 | 0.00 | 0.00 | 91 | 1004.5 |
| 20260509050404 | 23 | 94 | 3.2 | 8.0 | 0.00 | 0.00 | 0.00 | 91 | 1004.5 |
| 20260509050301 | 23 | 94 | 3.2 | 8.0 | 0.00 | 0.00 | 0.00 | 91 | 1004.5 |
| 20260509050201 | 23 | 97 | 4.8 | 8.0 | 0.00 | 0.00 | 0.00 | 91 | 1004.5 |
| 20260509050004 | 23 | 96 | 4.8 | 11.3 | 0.00 | 0.00 | 0.00 | 91 | 1004.4 |
| 20260509045902 | 23 | 89 | 4.8 | 11.3 | 0.00 | 0.00 | 0.00 | 91 | 1004.4 |
| 20260509045803 | 23 | 89 | 3.2 | 11.3 | 0.00 | 0.00 | 0.00 | 91 | 1004.4 |
| 20260509045702 | 23 | 87 | 4.8 | 11.3 | 0.00 | 0.00 | 0.00 | 91 | 1004.5 |
| 20260509045603 | 23 | 89 | 4.8 | 11.3 | 0.00 | 0.00 | 0.00 | 91 | 1004.4 |
| 20260509045505 | 23 | 111 | 3.2 | 11.3 | 0.00 | 0.00 | 0.00 | 91 | 1004.4 |
| 20260509045402 | 23 | 99 | 3.2 | 11.3 | 0.00 | 0.00 | 0.00 | 91 | 1004.4 |
| 20260509045306 | 23 | 99 | 4.8 | 11.3 | 0.00 | 0.00 | 0.00 | 91 | 1004.4 |
| 20260509045202 | 23 | 97 | 6.4 | 11.3 | 0.00 | 0.00 | 0.00 | 91 | 1004.5 |
| 20260509045103 | 23 | 79 | 6.4 | 8.0 | 0.00 | 0.00 | 0.00 | 91 | 1004.5 |
| 20260509045003 | 23 | 102 | 6.4 | 9.7 | 0.00 | 0.00 | 0.00 | 91 | 1004.5 |
| 20260509044903 | 23 | 96 | 4.8 | 9.7 | 0.00 | 0.00 | 0.00 | 91 | 1004.5 |
| 20260509044804 | 23 | 94 | 6.4 | 9.7 | 0.00 | 0.00 | 0.00 | 91 | 1004.6 |
| 20260509044702 | 23 | 96 | 4.8 | 9.7 | 0.00 | 0.00 | 0.00 | 91 | 1004.5 |
| 20260509044603 | 23 | 85 | 6.4 | 9.7 | 0.00 | 0.00 | 0.00 | 91 | 1004.6 |
| 20260509044503 | 23 | 106 | 6.4 | 9.7 | 0.00 | 0.00 | 0.00 | 91 | 1004.6 |
| 20260509044402 | 23 | 103 | 4.8 | 9.7 | 0.00 | 0.00 | 0.00 | 91 | 1004.6 |
| 20260509044302 | 23 | 97 | 4.8 | 9.7 | 0.00 | 0.00 | 0.00 | 91 | 1004.6 |
| 20260509044202 | 23 | 99 | 4.8 | 9.7 | 0.00 | 0.00 | 0.00 | 91 | 1004.6 |
| 20260509044102 | 23 | 104 | 4.8 | 9.7 | 0.00 | 0.00 | 0.00 | 91 | 1004.6 |
| 20260509044002 | 23 | 100 | 4.8 | 8.0 | 0.00 | 0.00 | 0.00 | 91 | 1004.7 |
| 20260509043904 | 23 | 100 | 3.2 | 6.4 | 0.00 | 0.00 | 0.00 | 91 | 1004.7 |
| 20260509043804 | 23 | 102 | 3.2 | 8.0 | 0.00 | 0.00 | 0.00 | 91 | 1004.7 |
| 20260509043656 | 23 | 104 | 3.2 | 8.0 | 0.00 | 0.00 | 0.00 | 91 | 1004.7 |
| 20260509043556 | 23 | 106 | 3.2 | 8.0 | 0.00 | 0.00 | 0.00 | 91 | 1004.7 |
| 20260509043449 | 23 | 106 | 3.2 | 8.0 | 0.00 | 0.00 | 0.00 | 91 | 1004.7 |
| 20260509043343 | 23 | 104 | 3.2 | 8.0 | 0.00 | 0.00 | 0.00 | 91 | 1004.6 |
| 20260509043240 | 23 | 106 | 4.8 | 8.0 | 0.00 | 0.00 | 0.00 | 91 | 1004.6 |
| 20260509043139 | 23 | 104 | 4.8 | 8.0 | 0.00 | 0.00 | 0.00 | 91 | 1004.6 |
| 20260509043032 | 23 | 104 | 4.8 | 8.0 | 0.00 | 0.00 | 0.00 | 91 | 1004.6 |
| 20260509042932 | 23 | 104 | 4.8 | 8.0 | 0.00 | 0.00 | 0.00 | 91 | 1004.6 |
| 20260509042832 | 23 | 110 | 4.8 | 8.0 | 0.00 | 0.00 | 0.00 | 91 | 1004.6 |
| 20260509042732 | 23 | 110 | 4.8 | 8.0 | 0.00 | 0.00 | 0.00 | 91 | 1004.6 |
| 20260509042632 | 23 | 107 | 4.8 | 8.0 | 0.00 | 0.00 | 0.00 | 91 | 1004.7 |
| 20260509042533 | 23 | 107 | 4.8 | 8.0 | 0.00 | 0.00 | 0.00 | 91 | 1004.7 |
| 20260509042432 | 23 | 109 | 4.8 | 8.0 | 0.00 | 0.00 | 0.00 | 91 | 1004.6 |
| 20260509042332 | 23 | 109 | 3.2 | 8.0 | 0.00 | 0.00 | 0.00 | 91 | 1004.7 |
| 20260509042232 | 23 | 109 | 4.8 | 8.0 | 0.00 | 0.00 | 0.00 | 91 | 1004.7 |
| 20260509042133 | 23 | 110 | 6.4 | 8.0 | 0.00 | 0.00 | 0.00 | 91 | 1004.7 |
| 20260509042031 | 23 | 104 | 6.4 | 8.0 | 0.00 | 0.00 | 0.00 | 91 | 1004.7 |
| 20260509041931 | 23 | 104 | 4.8 | 8.0 | 0.00 | 0.00 | 0.00 | 91 | 1004.6 |
| 20260509041832 | 23 | 116 | 4.8 | 8.0 | 0.00 | 0.00 | 0.00 | 91 | 1004.6 |
| 20260509041733 | 23 | 116 | 6.4 | 8.0 | 0.00 | 0.00 | 0.00 | 91 | 1004.6 |
| 20260509041632 | 23 | 118 | 6.4 | 8.0 | 0.00 | 0.00 | 0.00 | 91 | 1004.7 |
| 20260509041532 | 23 | 110 | 6.4 | 8.0 | 0.00 | 0.00 | 0.00 | 91 | 1004.6 |
| 20260509041432 | 23 | 117 | 6.4 | 8.0 | 0.00 | 0.00 | 0.00 | 91 | 1004.5 |
| 20260509041332 | 23 | 109 | 4.8 | 9.7 | 0.00 | 0.00 | 0.00 | 91 | 1004.6 |
| 20260509041232 | 23 | 110 | 4.8 | 9.7 | 0.00 | 0.00 | 0.00 | 91 | 1004.6 |
| 20260509041132 | 23 | 111 | 4.8 | 9.7 | 0.00 | 0.00 | 0.00 | 91 | 1004.5 |
| 20260509041033 | 23 | 142 | 4.8 | 9.7 | 0.00 | 0.00 | 0.00 | 91 | 1004.6 |
| 20260509040932 | 23 | 142 | 4.8 | 9.7 | 0.00 | 0.00 | 0.00 | 91 | 1004.5 |
| 20260509040832 | 23 | 111 | 4.8 | 9.7 | 0.00 | 0.00 | 0.00 | 91 | 1004.6 |
| 20260509040732 | 23 | 113 | 4.8 | 9.7 | 0.00 | 0.00 | 0.00 | 91 | 1004.5 |
| 20260509040633 | 23 | 113 | 3.2 | 9.7 | 0.00 | 0.00 | 0.00 | 91 | 1004.5 |
| 20260509040531 | 23 | 113 | 6.4 | 9.7 | 0.00 | 0.00 | 0.00 | 91 | 1004.5 |
| 20260509040433 | 23 | 114 | 8.0 | 9.7 | 0.00 | 0.00 | 0.00 | 91 | 1004.6 |
| 20260509040331 | 23 | 103 | 8.0 | 9.7 | 0.00 | 0.00 | 0.00 | 91 | 1004.5 |
| 20260509040232 | 23 | 100 | 6.4 | 9.7 | 0.00 | 0.00 | 0.00 | 91 | 1004.5 |
| 20260509040132 | 23 | 111 | 6.4 | 6.4 | 0.00 | 0.00 | 0.00 | 91 | 1004.5 |
| 20260509040022 | 23 | 113 | 4.8 | 8.0 | 0.00 | 0.00 | 0.00 | 91 | 1004.4 |
| 20260509035918 | 23 | 110 | 3.2 | 8.0 | 0.00 | 0.00 | 0.00 | 91 | 1004.4 |
| 20260509035819 | 23 | 110 | 1.6 | 8.0 | 0.00 | 0.00 | 0.00 | 90 | 1004.5 |
| 20260509035719 | 23 | 107 | 3.2 | 8.0 | 0.00 | 0.00 | 0.00 | 90 | 1004.5 |
| 20260509035613 | 23 | 107 | 3.2 | 8.0 | 0.00 | 0.00 | 0.00 | 90 | 1004.4 |
| 20260509035511 | 23 | 109 | 3.2 | 8.0 | 0.00 | 0.00 | 0.00 | 90 | 1004.4 |
| 20260509035410 | 23 | 106 | 4.8 | 8.0 | 0.00 | 0.00 | 0.00 | 90 | 1004.4 |
| 20260509035307 | 23 | 106 | 4.8 | 9.7 | 0.00 | 0.00 | 0.00 | 90 | 1004.4 |
| 20260509035207 | 23 | 102 | 4.8 | 11.3 | 0.00 | 0.00 | 0.00 | 90 | 1004.3 |
| 20260509035103 | 23 | 100 | 4.8 | 11.3 | 0.00 | 0.00 | 0.00 | 90 | 1004.4 |
| 20260509035003 | 23 | 104 | 4.8 | 11.3 | 0.00 | 0.00 | 0.00 | 90 | 1004.3 |
| 20260509034902 | 23 | 104 | 4.8 | 11.3 | 0.00 | 0.00 | 0.00 | 90 | 1004.3 |
| 20260509034803 | 23 | 90 | 6.4 | 11.3 | 0.00 | 0.00 | 0.00 | 90 | 1004.2 |
| 20260509034703 | 23 | 96 | 6.4 | 11.3 | 0.00 | 0.00 | 0.00 | 90 | 1004.2 |
| 20260509034604 | 23 | 97 | 6.4 | 11.3 | 0.00 | 0.00 | 0.00 | 90 | 1004.2 |
| 20260509034504 | 23 | 106 | 8.0 | 11.3 | 0.00 | 0.00 | 0.00 | 90 | 1004.1 |
| 20260509034401 | 23 | 111 | 8.0 | 11.3 | 0.00 | 0.00 | 0.00 | 90 | 1004.2 |
| 20260509034303 | 23 | 107 | 9.7 | 11.3 | 0.00 | 0.00 | 0.00 | 90 | 1004.1 |
| 20260509034204 | 23 | 113 | 8.0 | 11.3 | 0.00 | 0.00 | 0.00 | 90 | 1004.2 |
| 20260509034103 | 23 | 104 | 8.0 | 11.3 | 0.00 | 0.00 | 0.00 | 90 | 1004.2 |
| 20260509034002 | 23 | 94 | 6.4 | 11.3 | 0.00 | 0.00 | 0.00 | 90 | 1004.1 |
| 20260509033903 | 23 | 107 | 6.4 | 11.3 | 0.00 | 0.00 | 0.00 | 90 | 1004.1 |
| 20260509033803 | 23 | 131 | 6.4 | 11.3 | 0.00 | 0.00 | 0.00 | 90 | 1004.1 |
| 20260509033704 | 23 | 103 | 6.4 | 16.1 | 0.00 | 0.00 | 0.00 | 90 | 1004.1 |
| 20260509033604 | 23 | 103 | 6.4 | 17.7 | 0.00 | 0.00 | 0.00 | 90 | 1004.1 |
| 20260509033502 | 23 | 102 | 6.4 | 17.7 | 0.00 | 0.00 | 0.00 | 90 | 1004.1 |
| 20260509033403 | 23 | 104 | 8.0 | 17.7 | 0.00 | 0.00 | 0.00 | 90 | 1004.1 |
| 20260509033302 | 23 | 85 | 4.8 | 17.7 | 0.00 | 0.00 | 0.00 | 90 | 1004.2 |
| 20260509033202 | 23 | 90 | 4.8 | 17.7 | 0.00 | 0.00 | 0.00 | 90 | 1004.2 |
| 20260509033103 | 23 | 133 | 6.4 | 17.7 | 0.00 | 0.00 | 0.00 | 90 | 1004.1 |
| 20260509033002 | 23 | 113 | 6.4 | 17.7 | 0.00 | 0.00 | 0.00 | 90 | 1004.1 |
| 20260509032903 | 23 | 73 | 8.0 | 17.7 | 0.00 | 0.00 | 0.00 | 90 | 1004.2 |
| 20260509032802 | 23 | 90 | 9.7 | 17.7 | 0.00 | 0.00 | 0.00 | 90 | 1004.1 |
| 20260509032703 | 23 | 83 | 9.7 | 17.7 | 0.00 | 0.00 | 0.00 | 90 | 1004.1 |
| 20260509032602 | 23 | 106 | 8.0 | 11.3 | 0.00 | 0.00 | 0.00 | 90 | 1004.1 |
| 20260509032502 | 23 | 106 | 8.0 | 11.3 | 0.00 | 0.00 | 0.00 | 90 | 1004.1 |
| 20260509032404 | 23 | 107 | 8.0 | 11.3 | 0.00 | 0.00 | 0.00 | 90 | 1004.0 |
| 20260509032306 | 23 | 93 | 8.0 | 11.3 | 0.00 | 0.00 | 0.00 | 90 | 1004.1 |
| 20260509032203 | 23 | 85 | 8.0 | 11.3 | 0.00 | 0.00 | 0.00 | 90 | 1004.1 |
| 20260509032105 | 23 | 109 | 6.4 | 9.7 | 0.00 | 0.00 | 0.00 | 90 | 1004.0 |
| 20260509032005 | 23 | 86 | 4.8 | 9.7 | 0.00 | 0.00 | 0.00 | 90 | 1004.0 |
| 20260509031902 | 23 | 96 | 4.8 | 8.0 | 0.00 | 0.00 | 0.00 | 90 | 1004.1 |
| 20260509031802 | 23 | 104 | 3.2 | 11.3 | 0.00 | 0.00 | 0.00 | 90 | 1004.0 |
| 20260509031703 | 23 | 104 | 4.8 | 11.3 | 0.00 | 0.00 | 0.00 | 90 | 1004.0 |
| 20260509031604 | 23 | 103 | 4.8 | 11.3 | 0.00 | 0.00 | 0.00 | 90 | 1004.0 |
| 20260509031504 | 23 | 99 | 4.8 | 11.3 | 0.00 | 0.00 | 0.00 | 90 | 1004.0 |
| 20260509031403 | 23 | 100 | 4.8 | 11.3 | 0.00 | 0.00 | 0.00 | 90 | 1004.1 |
| 20260509031302 | 23 | 106 | 4.8 | 11.3 | 0.00 | 0.00 | 0.00 | 90 | 1004.2 |
| 20260509031203 | 23 | 110 | 6.4 | 11.3 | 0.00 | 0.00 | 0.00 | 90 | 1004.2 |
| 20260509031102 | 23 | 113 | 6.4 | 11.3 | 0.00 | 0.00 | 0.00 | 90 | 1004.1 |
| 20260509031004 | 23 | 100 | 8.0 | 11.3 | 0.00 | 0.00 | 0.00 | 90 | 1004.1 |
| 20260509030903 | 23 | 87 | 8.0 | 11.3 | 0.00 | 0.00 | 0.00 | 90 | 1004.1 |
| 20260509030803 | 23 | 99 | 6.4 | 11.3 | 0.00 | 0.00 | 0.00 | 90 | 1004.1 |
| 20260509030702 | 23 | 90 | 6.4 | 11.3 | 0.00 | 0.00 | 0.00 | 90 | 1004.0 |
| 20260509030602 | 23 | 93 | 6.4 | 11.3 | 0.00 | 0.00 | 0.00 | 90 | 1004.1 |
| 20260509030504 | 23 | 87 | 6.4 | 11.3 | 0.00 | 0.00 | 0.00 | 90 | 1004.0 |
| 20260509030403 | 23 | 100 | 8.0 | 11.3 | 0.00 | 0.00 | 0.00 | 90 | 1004.0 |
| 20260509030303 | 23 | 71 | 4.8 | 9.7 | 0.00 | 0.00 | 0.00 | 90 | 1004.1 |
| 20260509030205 | 23 | 99 | 3.2 | 11.3 | 0.00 | 0.00 | 0.00 | 90 | 1004.1 |
| 20260509030004 | 23 | 92 | 3.2 | 11.3 | 0.00 | 0.00 | 0.00 | 90 | 1004.0 |
| 20260509025902 | 23 | 93 | 3.2 | 11.3 | 0.00 | 0.00 | 0.00 | 90 | 1004.0 |
| 20260509025803 | 23 | 92 | 4.8 | 11.3 | 0.00 | 0.00 | 0.00 | 90 | 1004.0 |
| 20260509025702 | 23 | 94 | 6.4 | 11.3 | 0.00 | 0.00 | 0.00 | 90 | 1004.0 |
| 20260509025603 | 23 | 87 | 6.4 | 11.3 | 0.00 | 0.00 | 0.00 | 90 | 1003.9 |
| 20260509025503 | 23 | 89 | 6.4 | 11.3 | 0.00 | 0.00 | 0.00 | 90 | 1004.0 |
| 20260509025403 | 23 | 103 | 6.4 | 11.3 | 0.00 | 0.00 | 0.00 | 90 | 1004.0 |
| 20260509025306 | 23 | 93 | 6.4 | 11.3 | 0.00 | 0.00 | 0.00 | 90 | 1004.0 |
| 20260509025203 | 23 | 110 | 4.8 | 9.7 | 0.00 | 0.00 | 0.00 | 90 | 1004.0 |
| 20260509025103 | 23 | 110 | 4.8 | 9.7 | 0.00 | 0.00 | 0.00 | 90 | 1004.0 |
| 20260509025004 | 23 | 97 | 3.2 | 9.7 | 0.00 | 0.00 | 0.00 | 90 | 1004.0 |
| 20260509024903 | 23 | 97 | 4.8 | 9.7 | 0.00 | 0.00 | 0.00 | 90 | 1004.0 |
| 20260509024803 | 23 | 96 | 4.8 | 9.7 | 0.00 | 0.00 | 0.00 | 90 | 1004.0 |
| 20260509024704 | 23 | 92 | 3.2 | 9.7 | 0.00 | 0.00 | 0.00 | 90 | 1004.1 |
| 20260509024604 | 23 | 90 | 3.2 | 9.7 | 0.00 | 0.00 | 0.00 | 90 | 1004.1 |
| 20260509024503 | 23 | 89 | 3.2 | 9.7 | 0.00 | 0.00 | 0.00 | 90 | 1004.1 |
| 20260509024404 | 23 | 89 | 4.8 | 9.7 | 0.00 | 0.00 | 0.00 | 90 | 1004.0 |
| 20260509024304 | 23 | 85 | 3.2 | 9.7 | 0.00 | 0.00 | 0.00 | 90 | 1004.0 |
| 20260509024204 | 23 | 94 | 3.2 | 6.4 | 0.00 | 0.00 | 0.00 | 90 | 1004.0 |
| 20260509024103 | 23 | 94 | 3.2 | 6.4 | 0.00 | 0.00 | 0.00 | 90 | 1003.9 |
| 20260509024001 | 23 | 94 | 1.6 | 6.4 | 0.00 | 0.00 | 0.00 | 90 | 1003.9 |
| 20260509023903 | 23 | 96 | 3.2 | 6.4 | 0.00 | 0.00 | 0.00 | 90 | 1003.9 |
| 20260509023803 | 23 | 96 | 3.2 | 6.4 | 0.00 | 0.00 | 0.00 | 90 | 1003.8 |
| 20260509023704 | 23 | 96 | 1.6 | 6.4 | 0.00 | 0.00 | 0.00 | 90 | 1003.8 |
| 20260509023604 | 23 | 96 | 3.2 | 6.4 | 0.00 | 0.00 | 0.00 | 90 | 1003.9 |
| 20260509023505 | 23 | 86 | 3.2 | 6.4 | 0.00 | 0.00 | 0.00 | 90 | 1003.9 |
| 20260509023403 | 23 | 86 | 3.2 | 6.4 | 0.00 | 0.00 | 0.00 | 90 | 1003.9 |
| 20260509023303 | 23 | 90 | 3.2 | 6.4 | 0.00 | 0.00 | 0.00 | 90 | 1003.9 |
| 20260509023203 | 23 | 89 | 3.2 | 6.4 | 0.00 | 0.00 | 0.00 | 90 | 1003.8 |
| 20260509023103 | 23 | 89 | 3.2 | 6.4 | 0.00 | 0.00 | 0.00 | 90 | 1003.8 |
| 20260509023003 | 23 | 89 | 1.6 | 8.0 | 0.00 | 0.00 | 0.00 | 90 | 1003.9 |
| 20260509022903 | 23 | 87 | 3.2 | 8.0 | 0.00 | 0.00 | 0.00 | 90 | 1003.8 |
| 20260509022803 | 23 | 87 | 3.2 | 8.0 | 0.00 | 0.00 | 0.00 | 90 | 1003.7 |
| 20260509022704 | 23 | 85 | 4.8 | 8.0 | 0.00 | 0.00 | 0.00 | 90 | 1003.7 |
| 20260509022603 | 23 | 85 | 4.8 | 8.0 | 0.00 | 0.00 | 0.00 | 90 | 1003.7 |
| 20260509022503 | 23 | 83 | 3.2 | 8.0 | 0.00 | 0.00 | 0.00 | 90 | 1003.7 |
| 20260509022403 | 23 | 80 | 1.6 | 8.0 | 0.00 | 0.00 | 0.00 | 90 | 1003.7 |
| 20260509022306 | 23 | 82 | 3.2 | 8.0 | 0.00 | 0.00 | 0.00 | 90 | 1003.7 |
| 20260509022203 | 23 | 89 | 3.2 | 8.0 | 0.00 | 0.00 | 0.00 | 90 | 1003.7 |
| 20260509022105 | 23 | 89 | 3.2 | 8.0 | 0.00 | 0.00 | 0.00 | 90 | 1003.8 |
| 20260509022005 | 23 | 85 | 3.2 | 8.0 | 0.00 | 0.00 | 0.00 | 90 | 1003.8 |
| 20260509021903 | 23 | 83 | 3.2 | 8.0 | 0.00 | 0.00 | 0.00 | 90 | 1003.7 |
| 20260509021803 | 23 | 87 | 3.2 | 8.0 | 0.00 | 0.00 | 0.00 | 90 | 1003.7 |
| 20260509021703 | 23 | 87 | 3.2 | 8.0 | 0.00 | 0.00 | 0.00 | 90 | 1003.7 |
| 20260509021604 | 23 | 89 | 3.2 | 8.0 | 0.00 | 0.00 | 0.00 | 90 | 1003.7 |
| 20260509021504 | 23 | 87 | 3.2 | 8.0 | 0.00 | 0.00 | 0.00 | 90 | 1003.7 |
| 20260509021403 | 23 | 87 | 3.2 | 8.0 | 0.00 | 0.00 | 0.00 | 90 | 1003.7 |
| 20260509021303 | 23 | 63 | 1.6 | 8.0 | 0.00 | 0.00 | 0.00 | 90 | 1003.6 |
| 20260509021202 | 23 | 83 | 1.6 | 4.8 | 0.00 | 0.00 | 0.00 | 90 | 1003.6 |
| 20260509021104 | 23 | 83 | 1.6 | 4.8 | 0.00 | 0.00 | 0.00 | 90 | 1003.5 |
| 20260509021004 | 23 | 83 | 1.6 | 6.4 | 0.00 | 0.00 | 0.00 | 90 | 1003.6 |
| 20260509020904 | 23 | 82 | 1.6 | 6.4 | 0.00 | 0.00 | 0.00 | 90 | 1003.6 |